<?xml version="1.0" encoding="UTF-8" standalone="no" ?>
<gpx xmlns="http://www.topografix.com/GPX/1/1" xmlns:xsi="http://www.w3.org/2001/XMLSchema-instance" xsi:schemaLocation="http://www.topografix.com/GPX/1/1 http://www.topografix.com/GPX/1/1/gpx.xsd" version="1.1" creator="VisuGPX - https://www.visugpx.com">
  <metadata>
    <name>En souvenir de Nicolas Rambourg</name>
  </metadata>
  <wpt lat="46.63562" lon="2.67494">
    <ele>250</ele>
    <name><![CDATA[Rond du chevreuil]]></name>
  </wpt>
  <wpt lat="46.65742" lon="2.66954">
    <ele>241</ele>
    <name><![CDATA[Piste à droite en lisière]]></name>
  </wpt>
  <wpt lat="46.66035" lon="2.67844">
    <ele>235</ele>
    <name><![CDATA[Route forestière de Baignerault ]]></name>
  </wpt>
  <wpt lat="46.65934" lon="2.67865">
    <ele>243</ele>
    <name><![CDATA[Ligne à gauche]]></name>
  </wpt>
  <wpt lat="46.64757" lon="2.68126">
    <ele>244</ele>
    <name><![CDATA[Rond du Haut du Parc]]></name>
  </wpt>
  <wpt lat="46.65146" lon="2.68334">
    <ele>230</ele>
    <name><![CDATA[Sentier pédagogique]]></name>
  </wpt>
  <wpt lat="46.65542" lon="2.69063">
    <ele>229</ele>
    <name><![CDATA[Plage de l'Étang de Saint-Bonnet -Tronçais]]></name>
  </wpt>
  <wpt lat="46.66093" lon="2.69544">
    <ele>214</ele>
    <name><![CDATA[Jonction D39]]></name>
  </wpt>
  <wpt lat="46.66065" lon="2.7008">
    <ele>229</ele>
    <name><![CDATA[Rond du Vieux Morat]]></name>
  </wpt>
  <wpt lat="46.65867" lon="2.70285">
    <ele>227</ele>
    <name><![CDATA[Étang de Morat]]></name>
  </wpt>
  <wpt lat="46.64264" lon="2.72058">
    <ele>243</ele>
    <name><![CDATA[Jonction avec la D978a]]></name>
  </wpt>
  <wpt lat="46.64102" lon="2.72025">
    <ele>231</ele>
    <name><![CDATA[Etang de Tronçais]]></name>
  </wpt>
  <wpt lat="46.64057" lon="2.71651">
    <ele>236</ele>
    <name><![CDATA[Rond de Tronçais]]></name>
  </wpt>
  <wpt lat="46.61833" lon="2.73104">
    <ele>269</ele>
    <name><![CDATA[Ligne de partage parcelles 325 / 326]]></name>
  </wpt>
  <wpt lat="46.60589" lon="2.69406">
    <ele>306</ele>
    <name><![CDATA[Rond des Loges]]></name>
  </wpt>
  <wpt lat="46.59878" lon="2.69009">
    <ele>307</ele>
    <name><![CDATA[Rond de la Font Bégault]]></name>
  </wpt>
  <wpt lat="46.62144" lon="2.67843">
    <ele>281</ele>
    <name><![CDATA[Ligne de partage parcelles 377 / 378]]></name>
  </wpt>
  <wpt lat="46.62199" lon="2.66769">
    <ele>269</ele>
    <name><![CDATA[Ligne du Haut du Parc]]></name>
  </wpt>
  <wpt lat="46.63552" lon="2.67485">
    <ele>250</ele>
    <name><![CDATA[Rond du Chevreuil]]></name>
  </wpt>
  <trk>
    <name><![CDATA[En souvenir de Nicolas Rambourg]]></name>
    <trkseg>
      <trkpt lat="46.63562" lon="2.67494">
        <ele>250</ele>
        <time>2010-01-01T01:00:00+01:00</time>
      </trkpt>
      <trkpt lat="46.63582" lon="2.67485">
        <ele>250</ele>
        <time>2010-01-01T01:00:00+01:00</time>
      </trkpt>
      <trkpt lat="46.63595" lon="2.6748">
        <ele>250</ele>
        <time>2010-01-01T01:00:00+01:00</time>
      </trkpt>
      <trkpt lat="46.63611" lon="2.67476">
        <ele>250</ele>
        <time>2010-01-01T01:00:00+01:00</time>
      </trkpt>
      <trkpt lat="46.63661" lon="2.67464">
        <ele>250</ele>
        <time>2010-01-01T01:00:00+01:00</time>
      </trkpt>
      <trkpt lat="46.63737" lon="2.67444">
        <ele>248</ele>
        <time>2010-01-01T01:00:00+01:00</time>
      </trkpt>
      <trkpt lat="46.63782" lon="2.67432">
        <ele>247</ele>
        <time>2010-01-01T01:00:00+01:00</time>
      </trkpt>
      <trkpt lat="46.63825" lon="2.67421">
        <ele>245</ele>
        <time>2010-01-01T01:00:00+01:00</time>
      </trkpt>
      <trkpt lat="46.63829" lon="2.67421">
        <ele>245</ele>
        <time>2010-01-01T01:00:00+01:00</time>
      </trkpt>
      <trkpt lat="46.63877" lon="2.67409">
        <ele>247</ele>
        <time>2010-01-01T01:00:00+01:00</time>
      </trkpt>
      <trkpt lat="46.63956" lon="2.67389">
        <ele>249</ele>
        <time>2010-01-01T01:00:00+01:00</time>
      </trkpt>
      <trkpt lat="46.64025" lon="2.67374">
        <ele>249</ele>
        <time>2010-01-01T01:00:00+01:00</time>
      </trkpt>
      <trkpt lat="46.64062" lon="2.67364">
        <ele>249</ele>
        <time>2010-01-01T01:00:00+01:00</time>
      </trkpt>
      <trkpt lat="46.64079" lon="2.67359">
        <ele>249</ele>
        <time>2010-01-01T01:00:00+01:00</time>
      </trkpt>
      <trkpt lat="46.6417" lon="2.67337">
        <ele>247</ele>
        <time>2010-01-01T01:00:00+01:00</time>
      </trkpt>
      <trkpt lat="46.6425" lon="2.67317">
        <ele>248</ele>
        <time>2010-01-01T01:00:00+01:00</time>
      </trkpt>
      <trkpt lat="46.64292" lon="2.67307">
        <ele>248</ele>
        <time>2010-01-01T01:00:00+01:00</time>
      </trkpt>
      <trkpt lat="46.64303" lon="2.67304">
        <ele>248</ele>
        <time>2010-01-01T01:00:00+01:00</time>
      </trkpt>
      <trkpt lat="46.64369" lon="2.67288">
        <ele>250</ele>
        <time>2010-01-01T01:00:00+01:00</time>
      </trkpt>
      <trkpt lat="46.6445" lon="2.67269">
        <ele>251</ele>
        <time>2010-01-01T01:00:00+01:00</time>
      </trkpt>
      <trkpt lat="46.64525" lon="2.6725">
        <ele>250</ele>
        <time>2010-01-01T01:00:00+01:00</time>
      </trkpt>
      <trkpt lat="46.64526" lon="2.6725">
        <ele>250</ele>
        <time>2010-01-01T01:00:00+01:00</time>
      </trkpt>
      <trkpt lat="46.64585" lon="2.67234">
        <ele>251</ele>
        <time>2010-01-01T01:00:00+01:00</time>
      </trkpt>
      <trkpt lat="46.64662" lon="2.67215">
        <ele>248</ele>
        <time>2010-01-01T01:00:00+01:00</time>
      </trkpt>
      <trkpt lat="46.64714" lon="2.67202">
        <ele>247</ele>
        <time>2010-01-01T01:00:00+01:00</time>
      </trkpt>
      <trkpt lat="46.64758" lon="2.67192">
        <ele>247</ele>
        <time>2010-01-01T01:00:00+01:00</time>
      </trkpt>
      <trkpt lat="46.64762" lon="2.67191">
        <ele>247</ele>
        <time>2010-01-01T01:00:00+01:00</time>
      </trkpt>
      <trkpt lat="46.64799" lon="2.67183">
        <ele>246</ele>
        <time>2010-01-01T01:00:00+01:00</time>
      </trkpt>
      <trkpt lat="46.64851" lon="2.67171">
        <ele>246</ele>
        <time>2010-01-01T01:00:00+01:00</time>
      </trkpt>
      <trkpt lat="46.64873" lon="2.67166">
        <ele>246</ele>
        <time>2010-01-01T01:00:00+01:00</time>
      </trkpt>
      <trkpt lat="46.64917" lon="2.67155">
        <ele>246</ele>
        <time>2010-01-01T01:00:00+01:00</time>
      </trkpt>
      <trkpt lat="46.64977" lon="2.6714">
        <ele>247</ele>
        <time>2010-01-01T01:00:00+01:00</time>
      </trkpt>
      <trkpt lat="46.65043" lon="2.67124">
        <ele>247</ele>
        <time>2010-01-01T01:00:00+01:00</time>
      </trkpt>
      <trkpt lat="46.65088" lon="2.67114">
        <ele>246</ele>
        <time>2010-01-01T01:00:00+01:00</time>
      </trkpt>
      <trkpt lat="46.65161" lon="2.67097">
        <ele>245</ele>
        <time>2010-01-01T01:00:00+01:00</time>
      </trkpt>
      <trkpt lat="46.65211" lon="2.67085">
        <ele>244</ele>
        <time>2010-01-01T01:00:00+01:00</time>
      </trkpt>
      <trkpt lat="46.65221" lon="2.67082">
        <ele>244</ele>
        <time>2010-01-01T01:00:00+01:00</time>
      </trkpt>
      <trkpt lat="46.65241" lon="2.67077">
        <ele>243</ele>
        <time>2010-01-01T01:00:00+01:00</time>
      </trkpt>
      <trkpt lat="46.6525" lon="2.67075">
        <ele>243</ele>
        <time>2010-01-01T01:00:00+01:00</time>
      </trkpt>
      <trkpt lat="46.65275" lon="2.67069">
        <ele>243</ele>
        <time>2010-01-01T01:00:00+01:00</time>
      </trkpt>
      <trkpt lat="46.65347" lon="2.67049">
        <ele>242</ele>
        <time>2010-01-01T01:00:00+01:00</time>
      </trkpt>
      <trkpt lat="46.6541" lon="2.67035">
        <ele>241</ele>
        <time>2010-01-01T01:00:00+01:00</time>
      </trkpt>
      <trkpt lat="46.6545" lon="2.67025">
        <ele>241</ele>
        <time>2010-01-01T01:00:00+01:00</time>
      </trkpt>
      <trkpt lat="46.65515" lon="2.6701">
        <ele>242</ele>
        <time>2010-01-01T01:00:00+01:00</time>
      </trkpt>
      <trkpt lat="46.65527" lon="2.67007">
        <ele>242</ele>
        <time>2010-01-01T01:00:00+01:00</time>
      </trkpt>
      <trkpt lat="46.6557" lon="2.66996">
        <ele>243</ele>
        <time>2010-01-01T01:00:00+01:00</time>
      </trkpt>
      <trkpt lat="46.65631" lon="2.66981">
        <ele>245</ele>
        <time>2010-01-01T01:00:00+01:00</time>
      </trkpt>
      <trkpt lat="46.65645" lon="2.66978">
        <ele>245</ele>
        <time>2010-01-01T01:00:00+01:00</time>
      </trkpt>
      <trkpt lat="46.65694" lon="2.66965">
        <ele>244</ele>
        <time>2010-01-01T01:00:00+01:00</time>
      </trkpt>
      <trkpt lat="46.65742" lon="2.66954">
        <ele>241</ele>
        <time>2010-01-01T01:00:00+01:00</time>
      </trkpt>
      <trkpt lat="46.65742" lon="2.66954">
        <ele>241</ele>
        <time>2010-01-01T01:00:00+01:00</time>
      </trkpt>
      <trkpt lat="46.65759" lon="2.66989">
        <ele>241</ele>
        <time>2010-01-01T01:00:00+01:00</time>
      </trkpt>
      <trkpt lat="46.65805" lon="2.67084">
        <ele>243</ele>
        <time>2010-01-01T01:00:00+01:00</time>
      </trkpt>
      <trkpt lat="46.6583" lon="2.67131">
        <ele>244</ele>
        <time>2010-01-01T01:00:00+01:00</time>
      </trkpt>
      <trkpt lat="46.65872" lon="2.67211">
        <ele>246</ele>
        <time>2010-01-01T01:00:00+01:00</time>
      </trkpt>
      <trkpt lat="46.6592" lon="2.6731">
        <ele>248</ele>
        <time>2010-01-01T01:00:00+01:00</time>
      </trkpt>
      <trkpt lat="46.65935" lon="2.6735">
        <ele>247</ele>
        <time>2010-01-01T01:00:00+01:00</time>
      </trkpt>
      <trkpt lat="46.65936" lon="2.67352">
        <ele>247</ele>
        <time>2010-01-01T01:00:00+01:00</time>
      </trkpt>
      <trkpt lat="46.65942" lon="2.674">
        <ele>247</ele>
        <time>2010-01-01T01:00:00+01:00</time>
      </trkpt>
      <trkpt lat="46.6595" lon="2.67506">
        <ele>242</ele>
        <time>2010-01-01T01:00:00+01:00</time>
      </trkpt>
      <trkpt lat="46.65949" lon="2.67532">
        <ele>240</ele>
        <time>2010-01-01T01:00:00+01:00</time>
      </trkpt>
      <trkpt lat="46.65917" lon="2.67586">
        <ele>240</ele>
        <time>2010-01-01T01:00:00+01:00</time>
      </trkpt>
      <trkpt lat="46.65903" lon="2.67617">
        <ele>241</ele>
        <time>2010-01-01T01:00:00+01:00</time>
      </trkpt>
      <trkpt lat="46.65981" lon="2.67757">
        <ele>236</ele>
        <time>2010-01-01T01:00:00+01:00</time>
      </trkpt>
      <trkpt lat="46.66004" lon="2.67788">
        <ele>236</ele>
        <time>2010-01-01T01:00:00+01:00</time>
      </trkpt>
      <trkpt lat="46.66012" lon="2.67802">
        <ele>236</ele>
        <time>2010-01-01T01:00:00+01:00</time>
      </trkpt>
      <trkpt lat="46.66021" lon="2.67817">
        <ele>236</ele>
        <time>2010-01-01T01:00:00+01:00</time>
      </trkpt>
      <trkpt lat="46.66033" lon="2.67838">
        <ele>236</ele>
        <time>2010-01-01T01:00:00+01:00</time>
      </trkpt>
      <trkpt lat="46.66035" lon="2.67844">
        <ele>235</ele>
        <time>2010-01-01T01:00:00+01:00</time>
      </trkpt>
      <trkpt lat="46.66022" lon="2.67846">
        <ele>236</ele>
        <time>2010-01-01T01:00:00+01:00</time>
      </trkpt>
      <trkpt lat="46.65992" lon="2.67853">
        <ele>238</ele>
        <time>2010-01-01T01:00:00+01:00</time>
      </trkpt>
      <trkpt lat="46.65967" lon="2.67857">
        <ele>240</ele>
        <time>2010-01-01T01:00:00+01:00</time>
      </trkpt>
      <trkpt lat="46.65934" lon="2.67865">
        <ele>243</ele>
        <time>2010-01-01T01:00:00+01:00</time>
      </trkpt>
      <trkpt lat="46.65895" lon="2.67875">
        <ele>243</ele>
        <time>2010-01-01T01:00:00+01:00</time>
      </trkpt>
      <trkpt lat="46.65856" lon="2.67884">
        <ele>243</ele>
        <time>2010-01-01T01:00:00+01:00</time>
      </trkpt>
      <trkpt lat="46.65787" lon="2.67898">
        <ele>238</ele>
        <time>2010-01-01T01:00:00+01:00</time>
      </trkpt>
      <trkpt lat="46.65758" lon="2.67903">
        <ele>236</ele>
        <time>2010-01-01T01:00:00+01:00</time>
      </trkpt>
      <trkpt lat="46.65734" lon="2.67909">
        <ele>234</ele>
        <time>2010-01-01T01:00:00+01:00</time>
      </trkpt>
      <trkpt lat="46.65697" lon="2.67917">
        <ele>232</ele>
        <time>2010-01-01T01:00:00+01:00</time>
      </trkpt>
      <trkpt lat="46.6564" lon="2.67929">
        <ele>231</ele>
        <time>2010-01-01T01:00:00+01:00</time>
      </trkpt>
      <trkpt lat="46.65605" lon="2.67938">
        <ele>231</ele>
        <time>2010-01-01T01:00:00+01:00</time>
      </trkpt>
      <trkpt lat="46.65553" lon="2.67949">
        <ele>231</ele>
        <time>2010-01-01T01:00:00+01:00</time>
      </trkpt>
      <trkpt lat="46.65496" lon="2.67962">
        <ele>230</ele>
        <time>2010-01-01T01:00:00+01:00</time>
      </trkpt>
      <trkpt lat="46.65443" lon="2.67973">
        <ele>230</ele>
        <time>2010-01-01T01:00:00+01:00</time>
      </trkpt>
      <trkpt lat="46.65412" lon="2.6798">
        <ele>230</ele>
        <time>2010-01-01T01:00:00+01:00</time>
      </trkpt>
      <trkpt lat="46.65389" lon="2.67985">
        <ele>229</ele>
        <time>2010-01-01T01:00:00+01:00</time>
      </trkpt>
      <trkpt lat="46.65303" lon="2.68004">
        <ele>226</ele>
        <time>2010-01-01T01:00:00+01:00</time>
      </trkpt>
      <trkpt lat="46.65268" lon="2.68011">
        <ele>227</ele>
        <time>2010-01-01T01:00:00+01:00</time>
      </trkpt>
      <trkpt lat="46.65239" lon="2.68018">
        <ele>227</ele>
        <time>2010-01-01T01:00:00+01:00</time>
      </trkpt>
      <trkpt lat="46.6519" lon="2.68029">
        <ele>227</ele>
        <time>2010-01-01T01:00:00+01:00</time>
      </trkpt>
      <trkpt lat="46.65118" lon="2.68044">
        <ele>230</ele>
        <time>2010-01-01T01:00:00+01:00</time>
      </trkpt>
      <trkpt lat="46.65054" lon="2.68058">
        <ele>233</ele>
        <time>2010-01-01T01:00:00+01:00</time>
      </trkpt>
      <trkpt lat="46.6499" lon="2.68074">
        <ele>234</ele>
        <time>2010-01-01T01:00:00+01:00</time>
      </trkpt>
      <trkpt lat="46.64945" lon="2.68084">
        <ele>235</ele>
        <time>2010-01-01T01:00:00+01:00</time>
      </trkpt>
      <trkpt lat="46.64883" lon="2.68098">
        <ele>237</ele>
        <time>2010-01-01T01:00:00+01:00</time>
      </trkpt>
      <trkpt lat="46.64832" lon="2.68108">
        <ele>238</ele>
        <time>2010-01-01T01:00:00+01:00</time>
      </trkpt>
      <trkpt lat="46.64777" lon="2.68119">
        <ele>242</ele>
        <time>2010-01-01T01:00:00+01:00</time>
      </trkpt>
      <trkpt lat="46.64753" lon="2.68124">
        <ele>244</ele>
        <time>2010-01-01T01:00:00+01:00</time>
      </trkpt>
      <trkpt lat="46.64757" lon="2.68126">
        <ele>244</ele>
        <time>2010-01-01T01:00:00+01:00</time>
      </trkpt>
      <trkpt lat="46.64757" lon="2.68126">
        <ele>244</ele>
        <time>2010-01-01T01:00:00+01:00</time>
      </trkpt>
      <trkpt lat="46.64779" lon="2.68137">
        <ele>243</ele>
        <time>2010-01-01T01:00:00+01:00</time>
      </trkpt>
      <trkpt lat="46.64832" lon="2.68166">
        <ele>244</ele>
        <time>2010-01-01T01:00:00+01:00</time>
      </trkpt>
      <trkpt lat="46.64903" lon="2.68203">
        <ele>243</ele>
        <time>2010-01-01T01:00:00+01:00</time>
      </trkpt>
      <trkpt lat="46.64978" lon="2.68241">
        <ele>242</ele>
        <time>2010-01-01T01:00:00+01:00</time>
      </trkpt>
      <trkpt lat="46.651" lon="2.68311">
        <ele>238</ele>
        <time>2010-01-01T01:00:00+01:00</time>
      </trkpt>
      <trkpt lat="46.65101" lon="2.68311">
        <ele>238</ele>
        <time>2010-01-01T01:00:00+01:00</time>
      </trkpt>
      <trkpt lat="46.65146" lon="2.68334">
        <ele>230</ele>
        <time>2010-01-01T01:00:00+01:00</time>
      </trkpt>
      <trkpt lat="46.65157" lon="2.68313">
        <ele>231</ele>
        <time>2010-01-01T01:00:00+01:00</time>
      </trkpt>
      <trkpt lat="46.65187" lon="2.68252">
        <ele>235</ele>
        <time>2010-01-01T01:00:00+01:00</time>
      </trkpt>
      <trkpt lat="46.65204" lon="2.682">
        <ele>234</ele>
        <time>2010-01-01T01:00:00+01:00</time>
      </trkpt>
      <trkpt lat="46.65225" lon="2.68141">
        <ele>233</ele>
        <time>2010-01-01T01:00:00+01:00</time>
      </trkpt>
      <trkpt lat="46.65264" lon="2.68112">
        <ele>231</ele>
        <time>2010-01-01T01:00:00+01:00</time>
      </trkpt>
      <trkpt lat="46.65294" lon="2.68095">
        <ele>230</ele>
        <time>2010-01-01T01:00:00+01:00</time>
      </trkpt>
      <trkpt lat="46.65313" lon="2.68076">
        <ele>230</ele>
        <time>2010-01-01T01:00:00+01:00</time>
      </trkpt>
      <trkpt lat="46.65343" lon="2.68031">
        <ele>228</ele>
        <time>2010-01-01T01:00:00+01:00</time>
      </trkpt>
      <trkpt lat="46.6539" lon="2.68">
        <ele>230</ele>
        <time>2010-01-01T01:00:00+01:00</time>
      </trkpt>
      <trkpt lat="46.65412" lon="2.6801">
        <ele>232</ele>
        <time>2010-01-01T01:00:00+01:00</time>
      </trkpt>
      <trkpt lat="46.65427" lon="2.68028">
        <ele>234</ele>
        <time>2010-01-01T01:00:00+01:00</time>
      </trkpt>
      <trkpt lat="46.65433" lon="2.68052">
        <ele>235</ele>
        <time>2010-01-01T01:00:00+01:00</time>
      </trkpt>
      <trkpt lat="46.65435" lon="2.68087">
        <ele>237</ele>
        <time>2010-01-01T01:00:00+01:00</time>
      </trkpt>
      <trkpt lat="46.65438" lon="2.68098">
        <ele>237</ele>
        <time>2010-01-01T01:00:00+01:00</time>
      </trkpt>
      <trkpt lat="46.65445" lon="2.6812">
        <ele>237</ele>
        <time>2010-01-01T01:00:00+01:00</time>
      </trkpt>
      <trkpt lat="46.65458" lon="2.68146">
        <ele>237</ele>
        <time>2010-01-01T01:00:00+01:00</time>
      </trkpt>
      <trkpt lat="46.65484" lon="2.68182">
        <ele>237</ele>
        <time>2010-01-01T01:00:00+01:00</time>
      </trkpt>
      <trkpt lat="46.65511" lon="2.68243">
        <ele>235</ele>
        <time>2010-01-01T01:00:00+01:00</time>
      </trkpt>
      <trkpt lat="46.65521" lon="2.6829">
        <ele>234</ele>
        <time>2010-01-01T01:00:00+01:00</time>
      </trkpt>
      <trkpt lat="46.65521" lon="2.68326">
        <ele>232</ele>
        <time>2010-01-01T01:00:00+01:00</time>
      </trkpt>
      <trkpt lat="46.6552" lon="2.68359">
        <ele>232</ele>
        <time>2010-01-01T01:00:00+01:00</time>
      </trkpt>
      <trkpt lat="46.65513" lon="2.68401">
        <ele>232</ele>
        <time>2010-01-01T01:00:00+01:00</time>
      </trkpt>
      <trkpt lat="46.6551" lon="2.68503">
        <ele>231</ele>
        <time>2010-01-01T01:00:00+01:00</time>
      </trkpt>
      <trkpt lat="46.6551" lon="2.68583">
        <ele>231</ele>
        <time>2010-01-01T01:00:00+01:00</time>
      </trkpt>
      <trkpt lat="46.6551" lon="2.68619">
        <ele>230</ele>
        <time>2010-01-01T01:00:00+01:00</time>
      </trkpt>
      <trkpt lat="46.65512" lon="2.68661">
        <ele>229</ele>
        <time>2010-01-01T01:00:00+01:00</time>
      </trkpt>
      <trkpt lat="46.65521" lon="2.68692">
        <ele>229</ele>
        <time>2010-01-01T01:00:00+01:00</time>
      </trkpt>
      <trkpt lat="46.65526" lon="2.68708">
        <ele>229</ele>
        <time>2010-01-01T01:00:00+01:00</time>
      </trkpt>
      <trkpt lat="46.65531" lon="2.68739">
        <ele>229</ele>
        <time>2010-01-01T01:00:00+01:00</time>
      </trkpt>
      <trkpt lat="46.65534" lon="2.68798">
        <ele>228</ele>
        <time>2010-01-01T01:00:00+01:00</time>
      </trkpt>
      <trkpt lat="46.65535" lon="2.68823">
        <ele>228</ele>
        <time>2010-01-01T01:00:00+01:00</time>
      </trkpt>
      <trkpt lat="46.65538" lon="2.68844">
        <ele>227</ele>
        <time>2010-01-01T01:00:00+01:00</time>
      </trkpt>
      <trkpt lat="46.65553" lon="2.6888">
        <ele>226</ele>
        <time>2010-01-01T01:00:00+01:00</time>
      </trkpt>
      <trkpt lat="46.65555" lon="2.68899">
        <ele>226</ele>
        <time>2010-01-01T01:00:00+01:00</time>
      </trkpt>
      <trkpt lat="46.65553" lon="2.68925">
        <ele>226</ele>
        <time>2010-01-01T01:00:00+01:00</time>
      </trkpt>
      <trkpt lat="46.65548" lon="2.68944">
        <ele>226</ele>
        <time>2010-01-01T01:00:00+01:00</time>
      </trkpt>
      <trkpt lat="46.65542" lon="2.68963">
        <ele>226</ele>
        <time>2010-01-01T01:00:00+01:00</time>
      </trkpt>
      <trkpt lat="46.65533" lon="2.68983">
        <ele>227</ele>
        <time>2010-01-01T01:00:00+01:00</time>
      </trkpt>
      <trkpt lat="46.65528" lon="2.69011">
        <ele>228</ele>
        <time>2010-01-01T01:00:00+01:00</time>
      </trkpt>
      <trkpt lat="46.65529" lon="2.6903">
        <ele>228</ele>
        <time>2010-01-01T01:00:00+01:00</time>
      </trkpt>
      <trkpt lat="46.65538" lon="2.69059">
        <ele>228</ele>
        <time>2010-01-01T01:00:00+01:00</time>
      </trkpt>
      <trkpt lat="46.65542" lon="2.69063">
        <ele>229</ele>
        <time>2010-01-01T01:00:00+01:00</time>
      </trkpt>
      <trkpt lat="46.65553" lon="2.69075">
        <ele>229</ele>
        <time>2010-01-01T01:00:00+01:00</time>
      </trkpt>
      <trkpt lat="46.65565" lon="2.69083">
        <ele>230</ele>
        <time>2010-01-01T01:00:00+01:00</time>
      </trkpt>
      <trkpt lat="46.65585" lon="2.69095">
        <ele>230</ele>
        <time>2010-01-01T01:00:00+01:00</time>
      </trkpt>
      <trkpt lat="46.65592" lon="2.691">
        <ele>229</ele>
        <time>2010-01-01T01:00:00+01:00</time>
      </trkpt>
      <trkpt lat="46.65608" lon="2.6911">
        <ele>229</ele>
        <time>2010-01-01T01:00:00+01:00</time>
      </trkpt>
      <trkpt lat="46.65627" lon="2.69122">
        <ele>229</ele>
        <time>2010-01-01T01:00:00+01:00</time>
      </trkpt>
      <trkpt lat="46.65644" lon="2.69134">
        <ele>228</ele>
        <time>2010-01-01T01:00:00+01:00</time>
      </trkpt>
      <trkpt lat="46.65657" lon="2.69143">
        <ele>228</ele>
        <time>2010-01-01T01:00:00+01:00</time>
      </trkpt>
      <trkpt lat="46.65671" lon="2.69152">
        <ele>228</ele>
        <time>2010-01-01T01:00:00+01:00</time>
      </trkpt>
      <trkpt lat="46.65681" lon="2.69158">
        <ele>228</ele>
        <time>2010-01-01T01:00:00+01:00</time>
      </trkpt>
      <trkpt lat="46.65698" lon="2.69171">
        <ele>228</ele>
        <time>2010-01-01T01:00:00+01:00</time>
      </trkpt>
      <trkpt lat="46.65711" lon="2.6918">
        <ele>228</ele>
        <time>2010-01-01T01:00:00+01:00</time>
      </trkpt>
      <trkpt lat="46.65726" lon="2.69196">
        <ele>228</ele>
        <time>2010-01-01T01:00:00+01:00</time>
      </trkpt>
      <trkpt lat="46.65736" lon="2.69204">
        <ele>227</ele>
        <time>2010-01-01T01:00:00+01:00</time>
      </trkpt>
      <trkpt lat="46.65748" lon="2.69213">
        <ele>227</ele>
        <time>2010-01-01T01:00:00+01:00</time>
      </trkpt>
      <trkpt lat="46.65761" lon="2.69219">
        <ele>227</ele>
        <time>2010-01-01T01:00:00+01:00</time>
      </trkpt>
      <trkpt lat="46.65777" lon="2.69226">
        <ele>227</ele>
        <time>2010-01-01T01:00:00+01:00</time>
      </trkpt>
      <trkpt lat="46.65803" lon="2.69235">
        <ele>226</ele>
        <time>2010-01-01T01:00:00+01:00</time>
      </trkpt>
      <trkpt lat="46.6583" lon="2.69244">
        <ele>225</ele>
        <time>2010-01-01T01:00:00+01:00</time>
      </trkpt>
      <trkpt lat="46.65856" lon="2.69251">
        <ele>224</ele>
        <time>2010-01-01T01:00:00+01:00</time>
      </trkpt>
      <trkpt lat="46.65874" lon="2.69254">
        <ele>224</ele>
        <time>2010-01-01T01:00:00+01:00</time>
      </trkpt>
      <trkpt lat="46.65893" lon="2.69255">
        <ele>223</ele>
        <time>2010-01-01T01:00:00+01:00</time>
      </trkpt>
      <trkpt lat="46.65906" lon="2.69256">
        <ele>222</ele>
        <time>2010-01-01T01:00:00+01:00</time>
      </trkpt>
      <trkpt lat="46.65924" lon="2.69254">
        <ele>222</ele>
        <time>2010-01-01T01:00:00+01:00</time>
      </trkpt>
      <trkpt lat="46.65942" lon="2.69263">
        <ele>222</ele>
        <time>2010-01-01T01:00:00+01:00</time>
      </trkpt>
      <trkpt lat="46.65953" lon="2.69257">
        <ele>222</ele>
        <time>2010-01-01T01:00:00+01:00</time>
      </trkpt>
      <trkpt lat="46.6599" lon="2.69284">
        <ele>221</ele>
        <time>2010-01-01T01:00:00+01:00</time>
      </trkpt>
      <trkpt lat="46.65998" lon="2.69306">
        <ele>221</ele>
        <time>2010-01-01T01:00:00+01:00</time>
      </trkpt>
      <trkpt lat="46.66014" lon="2.69359">
        <ele>220</ele>
        <time>2010-01-01T01:00:00+01:00</time>
      </trkpt>
      <trkpt lat="46.66025" lon="2.69392">
        <ele>219</ele>
        <time>2010-01-01T01:00:00+01:00</time>
      </trkpt>
      <trkpt lat="46.66027" lon="2.69397">
        <ele>219</ele>
        <time>2010-01-01T01:00:00+01:00</time>
      </trkpt>
      <trkpt lat="46.66042" lon="2.69447">
        <ele>217</ele>
        <time>2010-01-01T01:00:00+01:00</time>
      </trkpt>
      <trkpt lat="46.66046" lon="2.69461">
        <ele>216</ele>
        <time>2010-01-01T01:00:00+01:00</time>
      </trkpt>
      <trkpt lat="46.66054" lon="2.69486">
        <ele>215</ele>
        <time>2010-01-01T01:00:00+01:00</time>
      </trkpt>
      <trkpt lat="46.66067" lon="2.69532">
        <ele>214</ele>
        <time>2010-01-01T01:00:00+01:00</time>
      </trkpt>
      <trkpt lat="46.6607" lon="2.69541">
        <ele>214</ele>
        <time>2010-01-01T01:00:00+01:00</time>
      </trkpt>
      <trkpt lat="46.66078" lon="2.69568">
        <ele>214</ele>
        <time>2010-01-01T01:00:00+01:00</time>
      </trkpt>
      <trkpt lat="46.66093" lon="2.69544">
        <ele>214</ele>
        <time>2010-01-01T01:00:00+01:00</time>
      </trkpt>
      <trkpt lat="46.66103" lon="2.69561">
        <ele>215</ele>
        <time>2010-01-01T01:00:00+01:00</time>
      </trkpt>
      <trkpt lat="46.66109" lon="2.69584">
        <ele>215</ele>
        <time>2010-01-01T01:00:00+01:00</time>
      </trkpt>
      <trkpt lat="46.66115" lon="2.6961">
        <ele>217</ele>
        <time>2010-01-01T01:00:00+01:00</time>
      </trkpt>
      <trkpt lat="46.66126" lon="2.69635">
        <ele>218</ele>
        <time>2010-01-01T01:00:00+01:00</time>
      </trkpt>
      <trkpt lat="46.66133" lon="2.6966">
        <ele>220</ele>
        <time>2010-01-01T01:00:00+01:00</time>
      </trkpt>
      <trkpt lat="46.66122" lon="2.69684">
        <ele>220</ele>
        <time>2010-01-01T01:00:00+01:00</time>
      </trkpt>
      <trkpt lat="46.66105" lon="2.6972">
        <ele>221</ele>
        <time>2010-01-01T01:00:00+01:00</time>
      </trkpt>
      <trkpt lat="46.66083" lon="2.69773">
        <ele>221</ele>
        <time>2010-01-01T01:00:00+01:00</time>
      </trkpt>
      <trkpt lat="46.66073" lon="2.69818">
        <ele>224</ele>
        <time>2010-01-01T01:00:00+01:00</time>
      </trkpt>
      <trkpt lat="46.66066" lon="2.69852">
        <ele>226</ele>
        <time>2010-01-01T01:00:00+01:00</time>
      </trkpt>
      <trkpt lat="46.66063" lon="2.69884">
        <ele>228</ele>
        <time>2010-01-01T01:00:00+01:00</time>
      </trkpt>
      <trkpt lat="46.66062" lon="2.69886">
        <ele>227</ele>
        <time>2010-01-01T01:00:00+01:00</time>
      </trkpt>
      <trkpt lat="46.6606" lon="2.69926">
        <ele>229</ele>
        <time>2010-01-01T01:00:00+01:00</time>
      </trkpt>
      <trkpt lat="46.6606" lon="2.69928">
        <ele>229</ele>
        <time>2010-01-01T01:00:00+01:00</time>
      </trkpt>
      <trkpt lat="46.66056" lon="2.69971">
        <ele>228</ele>
        <time>2010-01-01T01:00:00+01:00</time>
      </trkpt>
      <trkpt lat="46.66054" lon="2.7002">
        <ele>228</ele>
        <time>2010-01-01T01:00:00+01:00</time>
      </trkpt>
      <trkpt lat="46.66058" lon="2.70056">
        <ele>228</ele>
        <time>2010-01-01T01:00:00+01:00</time>
      </trkpt>
      <trkpt lat="46.66065" lon="2.7008">
        <ele>229</ele>
        <time>2010-01-01T01:00:00+01:00</time>
      </trkpt>
      <trkpt lat="46.66057" lon="2.70093">
        <ele>229</ele>
        <time>2010-01-01T01:00:00+01:00</time>
      </trkpt>
      <trkpt lat="46.66042" lon="2.70113">
        <ele>229</ele>
        <time>2010-01-01T01:00:00+01:00</time>
      </trkpt>
      <trkpt lat="46.66005" lon="2.70176">
        <ele>232</ele>
        <time>2010-01-01T01:00:00+01:00</time>
      </trkpt>
      <trkpt lat="46.65956" lon="2.70214">
        <ele>231</ele>
        <time>2010-01-01T01:00:00+01:00</time>
      </trkpt>
      <trkpt lat="46.65923" lon="2.70231">
        <ele>228</ele>
        <time>2010-01-01T01:00:00+01:00</time>
      </trkpt>
      <trkpt lat="46.65892" lon="2.70272">
        <ele>228</ele>
        <time>2010-01-01T01:00:00+01:00</time>
      </trkpt>
      <trkpt lat="46.65867" lon="2.70285">
        <ele>227</ele>
        <time>2010-01-01T01:00:00+01:00</time>
      </trkpt>
      <trkpt lat="46.65858" lon="2.7029">
        <ele>227</ele>
        <time>2010-01-01T01:00:00+01:00</time>
      </trkpt>
      <trkpt lat="46.65826" lon="2.70305">
        <ele>225</ele>
        <time>2010-01-01T01:00:00+01:00</time>
      </trkpt>
      <trkpt lat="46.65805" lon="2.70313">
        <ele>225</ele>
        <time>2010-01-01T01:00:00+01:00</time>
      </trkpt>
      <trkpt lat="46.65784" lon="2.70323">
        <ele>225</ele>
        <time>2010-01-01T01:00:00+01:00</time>
      </trkpt>
      <trkpt lat="46.65752" lon="2.70346">
        <ele>225</ele>
        <time>2010-01-01T01:00:00+01:00</time>
      </trkpt>
      <trkpt lat="46.65729" lon="2.7036">
        <ele>225</ele>
        <time>2010-01-01T01:00:00+01:00</time>
      </trkpt>
      <trkpt lat="46.65712" lon="2.7037">
        <ele>225</ele>
        <time>2010-01-01T01:00:00+01:00</time>
      </trkpt>
      <trkpt lat="46.65657" lon="2.70405">
        <ele>223</ele>
        <time>2010-01-01T01:00:00+01:00</time>
      </trkpt>
      <trkpt lat="46.65641" lon="2.70418">
        <ele>223</ele>
        <time>2010-01-01T01:00:00+01:00</time>
      </trkpt>
      <trkpt lat="46.65631" lon="2.70429">
        <ele>223</ele>
        <time>2010-01-01T01:00:00+01:00</time>
      </trkpt>
      <trkpt lat="46.65623" lon="2.70441">
        <ele>224</ele>
        <time>2010-01-01T01:00:00+01:00</time>
      </trkpt>
      <trkpt lat="46.65615" lon="2.70458">
        <ele>224</ele>
        <time>2010-01-01T01:00:00+01:00</time>
      </trkpt>
      <trkpt lat="46.65611" lon="2.70474">
        <ele>225</ele>
        <time>2010-01-01T01:00:00+01:00</time>
      </trkpt>
      <trkpt lat="46.65607" lon="2.70496">
        <ele>225</ele>
        <time>2010-01-01T01:00:00+01:00</time>
      </trkpt>
      <trkpt lat="46.65606" lon="2.70516">
        <ele>225</ele>
        <time>2010-01-01T01:00:00+01:00</time>
      </trkpt>
      <trkpt lat="46.65606" lon="2.70541">
        <ele>225</ele>
        <time>2010-01-01T01:00:00+01:00</time>
      </trkpt>
      <trkpt lat="46.65607" lon="2.70569">
        <ele>225</ele>
        <time>2010-01-01T01:00:00+01:00</time>
      </trkpt>
      <trkpt lat="46.65609" lon="2.70592">
        <ele>225</ele>
        <time>2010-01-01T01:00:00+01:00</time>
      </trkpt>
      <trkpt lat="46.6561" lon="2.70612">
        <ele>225</ele>
        <time>2010-01-01T01:00:00+01:00</time>
      </trkpt>
      <trkpt lat="46.65611" lon="2.70641">
        <ele>225</ele>
        <time>2010-01-01T01:00:00+01:00</time>
      </trkpt>
      <trkpt lat="46.6561" lon="2.70665">
        <ele>225</ele>
        <time>2010-01-01T01:00:00+01:00</time>
      </trkpt>
      <trkpt lat="46.65606" lon="2.70696">
        <ele>225</ele>
        <time>2010-01-01T01:00:00+01:00</time>
      </trkpt>
      <trkpt lat="46.65602" lon="2.70722">
        <ele>226</ele>
        <time>2010-01-01T01:00:00+01:00</time>
      </trkpt>
      <trkpt lat="46.65598" lon="2.70754">
        <ele>227</ele>
        <time>2010-01-01T01:00:00+01:00</time>
      </trkpt>
      <trkpt lat="46.65592" lon="2.70767">
        <ele>227</ele>
        <time>2010-01-01T01:00:00+01:00</time>
      </trkpt>
      <trkpt lat="46.65582" lon="2.70779">
        <ele>227</ele>
        <time>2010-01-01T01:00:00+01:00</time>
      </trkpt>
      <trkpt lat="46.65572" lon="2.70785">
        <ele>227</ele>
        <time>2010-01-01T01:00:00+01:00</time>
      </trkpt>
      <trkpt lat="46.65554" lon="2.70794">
        <ele>228</ele>
        <time>2010-01-01T01:00:00+01:00</time>
      </trkpt>
      <trkpt lat="46.65524" lon="2.70805">
        <ele>229</ele>
        <time>2010-01-01T01:00:00+01:00</time>
      </trkpt>
      <trkpt lat="46.65493" lon="2.70817">
        <ele>230</ele>
        <time>2010-01-01T01:00:00+01:00</time>
      </trkpt>
      <trkpt lat="46.6546" lon="2.70826">
        <ele>230</ele>
        <time>2010-01-01T01:00:00+01:00</time>
      </trkpt>
      <trkpt lat="46.65433" lon="2.70829">
        <ele>231</ele>
        <time>2010-01-01T01:00:00+01:00</time>
      </trkpt>
      <trkpt lat="46.65408" lon="2.70826">
        <ele>231</ele>
        <time>2010-01-01T01:00:00+01:00</time>
      </trkpt>
      <trkpt lat="46.65383" lon="2.70819">
        <ele>232</ele>
        <time>2010-01-01T01:00:00+01:00</time>
      </trkpt>
      <trkpt lat="46.65363" lon="2.70813">
        <ele>233</ele>
        <time>2010-01-01T01:00:00+01:00</time>
      </trkpt>
      <trkpt lat="46.65342" lon="2.70809">
        <ele>234</ele>
        <time>2010-01-01T01:00:00+01:00</time>
      </trkpt>
      <trkpt lat="46.65323" lon="2.70809">
        <ele>234</ele>
        <time>2010-01-01T01:00:00+01:00</time>
      </trkpt>
      <trkpt lat="46.65299" lon="2.70813">
        <ele>234</ele>
        <time>2010-01-01T01:00:00+01:00</time>
      </trkpt>
      <trkpt lat="46.65275" lon="2.70822">
        <ele>234</ele>
        <time>2010-01-01T01:00:00+01:00</time>
      </trkpt>
      <trkpt lat="46.65242" lon="2.70838">
        <ele>234</ele>
        <time>2010-01-01T01:00:00+01:00</time>
      </trkpt>
      <trkpt lat="46.65239" lon="2.70839">
        <ele>234</ele>
        <time>2010-01-01T01:00:00+01:00</time>
      </trkpt>
      <trkpt lat="46.65213" lon="2.70848">
        <ele>234</ele>
        <time>2010-01-01T01:00:00+01:00</time>
      </trkpt>
      <trkpt lat="46.65195" lon="2.70861">
        <ele>235</ele>
        <time>2010-01-01T01:00:00+01:00</time>
      </trkpt>
      <trkpt lat="46.6517" lon="2.70886">
        <ele>237</ele>
        <time>2010-01-01T01:00:00+01:00</time>
      </trkpt>
      <trkpt lat="46.65138" lon="2.70909">
        <ele>240</ele>
        <time>2010-01-01T01:00:00+01:00</time>
      </trkpt>
      <trkpt lat="46.65124" lon="2.70919">
        <ele>241</ele>
        <time>2010-01-01T01:00:00+01:00</time>
      </trkpt>
      <trkpt lat="46.65102" lon="2.70932">
        <ele>243</ele>
        <time>2010-01-01T01:00:00+01:00</time>
      </trkpt>
      <trkpt lat="46.6509" lon="2.70937">
        <ele>244</ele>
        <time>2010-01-01T01:00:00+01:00</time>
      </trkpt>
      <trkpt lat="46.65069" lon="2.70945">
        <ele>244</ele>
        <time>2010-01-01T01:00:00+01:00</time>
      </trkpt>
      <trkpt lat="46.65052" lon="2.70953">
        <ele>245</ele>
        <time>2010-01-01T01:00:00+01:00</time>
      </trkpt>
      <trkpt lat="46.65045" lon="2.70958">
        <ele>245</ele>
        <time>2010-01-01T01:00:00+01:00</time>
      </trkpt>
      <trkpt lat="46.65029" lon="2.7097">
        <ele>246</ele>
        <time>2010-01-01T01:00:00+01:00</time>
      </trkpt>
      <trkpt lat="46.65012" lon="2.70979">
        <ele>247</ele>
        <time>2010-01-01T01:00:00+01:00</time>
      </trkpt>
      <trkpt lat="46.6499" lon="2.70985">
        <ele>247</ele>
        <time>2010-01-01T01:00:00+01:00</time>
      </trkpt>
      <trkpt lat="46.6497" lon="2.70991">
        <ele>247</ele>
        <time>2010-01-01T01:00:00+01:00</time>
      </trkpt>
      <trkpt lat="46.6496" lon="2.70998">
        <ele>248</ele>
        <time>2010-01-01T01:00:00+01:00</time>
      </trkpt>
      <trkpt lat="46.64942" lon="2.71011">
        <ele>249</ele>
        <time>2010-01-01T01:00:00+01:00</time>
      </trkpt>
      <trkpt lat="46.6493" lon="2.71018">
        <ele>249</ele>
        <time>2010-01-01T01:00:00+01:00</time>
      </trkpt>
      <trkpt lat="46.64915" lon="2.71025">
        <ele>249</ele>
        <time>2010-01-01T01:00:00+01:00</time>
      </trkpt>
      <trkpt lat="46.64886" lon="2.71036">
        <ele>249</ele>
        <time>2010-01-01T01:00:00+01:00</time>
      </trkpt>
      <trkpt lat="46.64842" lon="2.71051">
        <ele>250</ele>
        <time>2010-01-01T01:00:00+01:00</time>
      </trkpt>
      <trkpt lat="46.64821" lon="2.71055">
        <ele>249</ele>
        <time>2010-01-01T01:00:00+01:00</time>
      </trkpt>
      <trkpt lat="46.64796" lon="2.71058">
        <ele>248</ele>
        <time>2010-01-01T01:00:00+01:00</time>
      </trkpt>
      <trkpt lat="46.6478" lon="2.71059">
        <ele>247</ele>
        <time>2010-01-01T01:00:00+01:00</time>
      </trkpt>
      <trkpt lat="46.64759" lon="2.71059">
        <ele>245</ele>
        <time>2010-01-01T01:00:00+01:00</time>
      </trkpt>
      <trkpt lat="46.64746" lon="2.71063">
        <ele>245</ele>
        <time>2010-01-01T01:00:00+01:00</time>
      </trkpt>
      <trkpt lat="46.64728" lon="2.71069">
        <ele>244</ele>
        <time>2010-01-01T01:00:00+01:00</time>
      </trkpt>
      <trkpt lat="46.64712" lon="2.71076">
        <ele>243</ele>
        <time>2010-01-01T01:00:00+01:00</time>
      </trkpt>
      <trkpt lat="46.64698" lon="2.71083">
        <ele>242</ele>
        <time>2010-01-01T01:00:00+01:00</time>
      </trkpt>
      <trkpt lat="46.64661" lon="2.71099">
        <ele>240</ele>
        <time>2010-01-01T01:00:00+01:00</time>
      </trkpt>
      <trkpt lat="46.6463" lon="2.71111">
        <ele>239</ele>
        <time>2010-01-01T01:00:00+01:00</time>
      </trkpt>
      <trkpt lat="46.64593" lon="2.71125">
        <ele>237</ele>
        <time>2010-01-01T01:00:00+01:00</time>
      </trkpt>
      <trkpt lat="46.64568" lon="2.71135">
        <ele>236</ele>
        <time>2010-01-01T01:00:00+01:00</time>
      </trkpt>
      <trkpt lat="46.64552" lon="2.71142">
        <ele>236</ele>
        <time>2010-01-01T01:00:00+01:00</time>
      </trkpt>
      <trkpt lat="46.64536" lon="2.71151">
        <ele>236</ele>
        <time>2010-01-01T01:00:00+01:00</time>
      </trkpt>
      <trkpt lat="46.6452" lon="2.71164">
        <ele>235</ele>
        <time>2010-01-01T01:00:00+01:00</time>
      </trkpt>
      <trkpt lat="46.64505" lon="2.71177">
        <ele>235</ele>
        <time>2010-01-01T01:00:00+01:00</time>
      </trkpt>
      <trkpt lat="46.6449" lon="2.71191">
        <ele>235</ele>
        <time>2010-01-01T01:00:00+01:00</time>
      </trkpt>
      <trkpt lat="46.64471" lon="2.71212">
        <ele>234</ele>
        <time>2010-01-01T01:00:00+01:00</time>
      </trkpt>
      <trkpt lat="46.64458" lon="2.71236">
        <ele>234</ele>
        <time>2010-01-01T01:00:00+01:00</time>
      </trkpt>
      <trkpt lat="46.64451" lon="2.71262">
        <ele>234</ele>
        <time>2010-01-01T01:00:00+01:00</time>
      </trkpt>
      <trkpt lat="46.64442" lon="2.71298">
        <ele>235</ele>
        <time>2010-01-01T01:00:00+01:00</time>
      </trkpt>
      <trkpt lat="46.64433" lon="2.71338">
        <ele>235</ele>
        <time>2010-01-01T01:00:00+01:00</time>
      </trkpt>
      <trkpt lat="46.64424" lon="2.71376">
        <ele>236</ele>
        <time>2010-01-01T01:00:00+01:00</time>
      </trkpt>
      <trkpt lat="46.64415" lon="2.71413">
        <ele>238</ele>
        <time>2010-01-01T01:00:00+01:00</time>
      </trkpt>
      <trkpt lat="46.64407" lon="2.71448">
        <ele>237</ele>
        <time>2010-01-01T01:00:00+01:00</time>
      </trkpt>
      <trkpt lat="46.64394" lon="2.71502">
        <ele>237</ele>
        <time>2010-01-01T01:00:00+01:00</time>
      </trkpt>
      <trkpt lat="46.64385" lon="2.71542">
        <ele>236</ele>
        <time>2010-01-01T01:00:00+01:00</time>
      </trkpt>
      <trkpt lat="46.64374" lon="2.71589">
        <ele>234</ele>
        <time>2010-01-01T01:00:00+01:00</time>
      </trkpt>
      <trkpt lat="46.64362" lon="2.71642">
        <ele>234</ele>
        <time>2010-01-01T01:00:00+01:00</time>
      </trkpt>
      <trkpt lat="46.64328" lon="2.71784">
        <ele>236</ele>
        <time>2010-01-01T01:00:00+01:00</time>
      </trkpt>
      <trkpt lat="46.64318" lon="2.71827">
        <ele>236</ele>
        <time>2010-01-01T01:00:00+01:00</time>
      </trkpt>
      <trkpt lat="46.64308" lon="2.7187">
        <ele>237</ele>
        <time>2010-01-01T01:00:00+01:00</time>
      </trkpt>
      <trkpt lat="46.64297" lon="2.71916">
        <ele>238</ele>
        <time>2010-01-01T01:00:00+01:00</time>
      </trkpt>
      <trkpt lat="46.64288" lon="2.71955">
        <ele>238</ele>
        <time>2010-01-01T01:00:00+01:00</time>
      </trkpt>
      <trkpt lat="46.64276" lon="2.72002">
        <ele>238</ele>
        <time>2010-01-01T01:00:00+01:00</time>
      </trkpt>
      <trkpt lat="46.64266" lon="2.7204">
        <ele>241</ele>
        <time>2010-01-01T01:00:00+01:00</time>
      </trkpt>
      <trkpt lat="46.64264" lon="2.72058">
        <ele>243</ele>
        <time>2010-01-01T01:00:00+01:00</time>
      </trkpt>
      <trkpt lat="46.64246" lon="2.72068">
        <ele>241</ele>
        <time>2010-01-01T01:00:00+01:00</time>
      </trkpt>
      <trkpt lat="46.64227" lon="2.7208">
        <ele>240</ele>
        <time>2010-01-01T01:00:00+01:00</time>
      </trkpt>
      <trkpt lat="46.64198" lon="2.72097">
        <ele>237</ele>
        <time>2010-01-01T01:00:00+01:00</time>
      </trkpt>
      <trkpt lat="46.64173" lon="2.72113">
        <ele>235</ele>
        <time>2010-01-01T01:00:00+01:00</time>
      </trkpt>
      <trkpt lat="46.64151" lon="2.72126">
        <ele>234</ele>
        <time>2010-01-01T01:00:00+01:00</time>
      </trkpt>
      <trkpt lat="46.64131" lon="2.72132">
        <ele>233</ele>
        <time>2010-01-01T01:00:00+01:00</time>
      </trkpt>
      <trkpt lat="46.64113" lon="2.72113">
        <ele>231</ele>
        <time>2010-01-01T01:00:00+01:00</time>
      </trkpt>
      <trkpt lat="46.64108" lon="2.72077">
        <ele>230</ele>
        <time>2010-01-01T01:00:00+01:00</time>
      </trkpt>
      <trkpt lat="46.64102" lon="2.72025">
        <ele>231</ele>
        <time>2010-01-01T01:00:00+01:00</time>
      </trkpt>
      <trkpt lat="46.64097" lon="2.71982">
        <ele>231</ele>
        <time>2010-01-01T01:00:00+01:00</time>
      </trkpt>
      <trkpt lat="46.64092" lon="2.71939">
        <ele>232</ele>
        <time>2010-01-01T01:00:00+01:00</time>
      </trkpt>
      <trkpt lat="46.64085" lon="2.71884">
        <ele>232</ele>
        <time>2010-01-01T01:00:00+01:00</time>
      </trkpt>
      <trkpt lat="46.64079" lon="2.7183">
        <ele>230</ele>
        <time>2010-01-01T01:00:00+01:00</time>
      </trkpt>
      <trkpt lat="46.64076" lon="2.7181">
        <ele>230</ele>
        <time>2010-01-01T01:00:00+01:00</time>
      </trkpt>
      <trkpt lat="46.64072" lon="2.71773">
        <ele>230</ele>
        <time>2010-01-01T01:00:00+01:00</time>
      </trkpt>
      <trkpt lat="46.64066" lon="2.71725">
        <ele>231</ele>
        <time>2010-01-01T01:00:00+01:00</time>
      </trkpt>
      <trkpt lat="46.64061" lon="2.71682">
        <ele>233</ele>
        <time>2010-01-01T01:00:00+01:00</time>
      </trkpt>
      <trkpt lat="46.64057" lon="2.71651">
        <ele>236</ele>
        <time>2010-01-01T01:00:00+01:00</time>
      </trkpt>
      <trkpt lat="46.64042" lon="2.71642">
        <ele>239</ele>
        <time>2010-01-01T01:00:00+01:00</time>
      </trkpt>
      <trkpt lat="46.64026" lon="2.71628">
        <ele>243</ele>
        <time>2010-01-01T01:00:00+01:00</time>
      </trkpt>
      <trkpt lat="46.63808" lon="2.71435">
        <ele>255</ele>
        <time>2010-01-01T01:00:00+01:00</time>
      </trkpt>
      <trkpt lat="46.63784" lon="2.71414">
        <ele>256</ele>
        <time>2010-01-01T01:00:00+01:00</time>
      </trkpt>
      <trkpt lat="46.63712" lon="2.71344">
        <ele>257</ele>
        <time>2010-01-01T01:00:00+01:00</time>
      </trkpt>
      <trkpt lat="46.63693" lon="2.71327">
        <ele>257</ele>
        <time>2010-01-01T01:00:00+01:00</time>
      </trkpt>
      <trkpt lat="46.63662" lon="2.71298">
        <ele>258</ele>
        <time>2010-01-01T01:00:00+01:00</time>
      </trkpt>
      <trkpt lat="46.63645" lon="2.71283">
        <ele>257</ele>
        <time>2010-01-01T01:00:00+01:00</time>
      </trkpt>
      <trkpt lat="46.63638" lon="2.71289">
        <ele>257</ele>
        <time>2010-01-01T01:00:00+01:00</time>
      </trkpt>
      <trkpt lat="46.63603" lon="2.71324">
        <ele>252</ele>
        <time>2010-01-01T01:00:00+01:00</time>
      </trkpt>
      <trkpt lat="46.63577" lon="2.71349">
        <ele>251</ele>
        <time>2010-01-01T01:00:00+01:00</time>
      </trkpt>
      <trkpt lat="46.6355" lon="2.71377">
        <ele>251</ele>
        <time>2010-01-01T01:00:00+01:00</time>
      </trkpt>
      <trkpt lat="46.63527" lon="2.714">
        <ele>251</ele>
        <time>2010-01-01T01:00:00+01:00</time>
      </trkpt>
      <trkpt lat="46.63501" lon="2.71426">
        <ele>252</ele>
        <time>2010-01-01T01:00:00+01:00</time>
      </trkpt>
      <trkpt lat="46.63482" lon="2.71445">
        <ele>253</ele>
        <time>2010-01-01T01:00:00+01:00</time>
      </trkpt>
      <trkpt lat="46.63465" lon="2.71462">
        <ele>253</ele>
        <time>2010-01-01T01:00:00+01:00</time>
      </trkpt>
      <trkpt lat="46.63443" lon="2.71484">
        <ele>254</ele>
        <time>2010-01-01T01:00:00+01:00</time>
      </trkpt>
      <trkpt lat="46.63419" lon="2.71508">
        <ele>254</ele>
        <time>2010-01-01T01:00:00+01:00</time>
      </trkpt>
      <trkpt lat="46.63382" lon="2.71545">
        <ele>253</ele>
        <time>2010-01-01T01:00:00+01:00</time>
      </trkpt>
      <trkpt lat="46.6337" lon="2.71557">
        <ele>252</ele>
        <time>2010-01-01T01:00:00+01:00</time>
      </trkpt>
      <trkpt lat="46.63356" lon="2.71571">
        <ele>252</ele>
        <time>2010-01-01T01:00:00+01:00</time>
      </trkpt>
      <trkpt lat="46.63336" lon="2.71591">
        <ele>250</ele>
        <time>2010-01-01T01:00:00+01:00</time>
      </trkpt>
      <trkpt lat="46.63315" lon="2.71613">
        <ele>248</ele>
        <time>2010-01-01T01:00:00+01:00</time>
      </trkpt>
      <trkpt lat="46.6329" lon="2.71637">
        <ele>245</ele>
        <time>2010-01-01T01:00:00+01:00</time>
      </trkpt>
      <trkpt lat="46.63284" lon="2.71643">
        <ele>245</ele>
        <time>2010-01-01T01:00:00+01:00</time>
      </trkpt>
      <trkpt lat="46.63264" lon="2.71662">
        <ele>242</ele>
        <time>2010-01-01T01:00:00+01:00</time>
      </trkpt>
      <trkpt lat="46.6324" lon="2.71686">
        <ele>241</ele>
        <time>2010-01-01T01:00:00+01:00</time>
      </trkpt>
      <trkpt lat="46.63237" lon="2.71688">
        <ele>241</ele>
        <time>2010-01-01T01:00:00+01:00</time>
      </trkpt>
      <trkpt lat="46.6322" lon="2.71706">
        <ele>240</ele>
        <time>2010-01-01T01:00:00+01:00</time>
      </trkpt>
      <trkpt lat="46.63208" lon="2.71718">
        <ele>240</ele>
        <time>2010-01-01T01:00:00+01:00</time>
      </trkpt>
      <trkpt lat="46.63193" lon="2.71733">
        <ele>240</ele>
        <time>2010-01-01T01:00:00+01:00</time>
      </trkpt>
      <trkpt lat="46.63174" lon="2.71752">
        <ele>239</ele>
        <time>2010-01-01T01:00:00+01:00</time>
      </trkpt>
      <trkpt lat="46.6317" lon="2.71756">
        <ele>239</ele>
        <time>2010-01-01T01:00:00+01:00</time>
      </trkpt>
      <trkpt lat="46.63145" lon="2.7178">
        <ele>240</ele>
        <time>2010-01-01T01:00:00+01:00</time>
      </trkpt>
      <trkpt lat="46.63115" lon="2.7181">
        <ele>242</ele>
        <time>2010-01-01T01:00:00+01:00</time>
      </trkpt>
      <trkpt lat="46.63088" lon="2.71838">
        <ele>243</ele>
        <time>2010-01-01T01:00:00+01:00</time>
      </trkpt>
      <trkpt lat="46.63064" lon="2.71861">
        <ele>245</ele>
        <time>2010-01-01T01:00:00+01:00</time>
      </trkpt>
      <trkpt lat="46.63037" lon="2.71888">
        <ele>247</ele>
        <time>2010-01-01T01:00:00+01:00</time>
      </trkpt>
      <trkpt lat="46.63011" lon="2.71914">
        <ele>249</ele>
        <time>2010-01-01T01:00:00+01:00</time>
      </trkpt>
      <trkpt lat="46.62991" lon="2.71936">
        <ele>250</ele>
        <time>2010-01-01T01:00:00+01:00</time>
      </trkpt>
      <trkpt lat="46.62955" lon="2.71972">
        <ele>252</ele>
        <time>2010-01-01T01:00:00+01:00</time>
      </trkpt>
      <trkpt lat="46.62951" lon="2.71975">
        <ele>252</ele>
        <time>2010-01-01T01:00:00+01:00</time>
      </trkpt>
      <trkpt lat="46.62913" lon="2.72014">
        <ele>253</ele>
        <time>2010-01-01T01:00:00+01:00</time>
      </trkpt>
      <trkpt lat="46.62881" lon="2.72045">
        <ele>256</ele>
        <time>2010-01-01T01:00:00+01:00</time>
      </trkpt>
      <trkpt lat="46.62849" lon="2.72076">
        <ele>258</ele>
        <time>2010-01-01T01:00:00+01:00</time>
      </trkpt>
      <trkpt lat="46.62822" lon="2.72105">
        <ele>259</ele>
        <time>2010-01-01T01:00:00+01:00</time>
      </trkpt>
      <trkpt lat="46.62792" lon="2.72135">
        <ele>261</ele>
        <time>2010-01-01T01:00:00+01:00</time>
      </trkpt>
      <trkpt lat="46.62766" lon="2.72161">
        <ele>262</ele>
        <time>2010-01-01T01:00:00+01:00</time>
      </trkpt>
      <trkpt lat="46.62736" lon="2.72192">
        <ele>264</ele>
        <time>2010-01-01T01:00:00+01:00</time>
      </trkpt>
      <trkpt lat="46.6271" lon="2.72217">
        <ele>265</ele>
        <time>2010-01-01T01:00:00+01:00</time>
      </trkpt>
      <trkpt lat="46.62687" lon="2.7224">
        <ele>266</ele>
        <time>2010-01-01T01:00:00+01:00</time>
      </trkpt>
      <trkpt lat="46.6266" lon="2.72268">
        <ele>265</ele>
        <time>2010-01-01T01:00:00+01:00</time>
      </trkpt>
      <trkpt lat="46.62636" lon="2.72292">
        <ele>265</ele>
        <time>2010-01-01T01:00:00+01:00</time>
      </trkpt>
      <trkpt lat="46.6262" lon="2.72309">
        <ele>264</ele>
        <time>2010-01-01T01:00:00+01:00</time>
      </trkpt>
      <trkpt lat="46.62612" lon="2.72316">
        <ele>264</ele>
        <time>2010-01-01T01:00:00+01:00</time>
      </trkpt>
      <trkpt lat="46.626" lon="2.72329">
        <ele>263</ele>
        <time>2010-01-01T01:00:00+01:00</time>
      </trkpt>
      <trkpt lat="46.62575" lon="2.72354">
        <ele>261</ele>
        <time>2010-01-01T01:00:00+01:00</time>
      </trkpt>
      <trkpt lat="46.62555" lon="2.72374">
        <ele>260</ele>
        <time>2010-01-01T01:00:00+01:00</time>
      </trkpt>
      <trkpt lat="46.62532" lon="2.72397">
        <ele>258</ele>
        <time>2010-01-01T01:00:00+01:00</time>
      </trkpt>
      <trkpt lat="46.62508" lon="2.72421">
        <ele>258</ele>
        <time>2010-01-01T01:00:00+01:00</time>
      </trkpt>
      <trkpt lat="46.62487" lon="2.72442">
        <ele>257</ele>
        <time>2010-01-01T01:00:00+01:00</time>
      </trkpt>
      <trkpt lat="46.62462" lon="2.72468">
        <ele>256</ele>
        <time>2010-01-01T01:00:00+01:00</time>
      </trkpt>
      <trkpt lat="46.62438" lon="2.72491">
        <ele>255</ele>
        <time>2010-01-01T01:00:00+01:00</time>
      </trkpt>
      <trkpt lat="46.62416" lon="2.72513">
        <ele>255</ele>
        <time>2010-01-01T01:00:00+01:00</time>
      </trkpt>
      <trkpt lat="46.62389" lon="2.7254">
        <ele>253</ele>
        <time>2010-01-01T01:00:00+01:00</time>
      </trkpt>
      <trkpt lat="46.62359" lon="2.7257">
        <ele>251</ele>
        <time>2010-01-01T01:00:00+01:00</time>
      </trkpt>
      <trkpt lat="46.62332" lon="2.72597">
        <ele>250</ele>
        <time>2010-01-01T01:00:00+01:00</time>
      </trkpt>
      <trkpt lat="46.62304" lon="2.72625">
        <ele>249</ele>
        <time>2010-01-01T01:00:00+01:00</time>
      </trkpt>
      <trkpt lat="46.62275" lon="2.72655">
        <ele>247</ele>
        <time>2010-01-01T01:00:00+01:00</time>
      </trkpt>
      <trkpt lat="46.62252" lon="2.72677">
        <ele>246</ele>
        <time>2010-01-01T01:00:00+01:00</time>
      </trkpt>
      <trkpt lat="46.62229" lon="2.727">
        <ele>247</ele>
        <time>2010-01-01T01:00:00+01:00</time>
      </trkpt>
      <trkpt lat="46.62214" lon="2.72716">
        <ele>247</ele>
        <time>2010-01-01T01:00:00+01:00</time>
      </trkpt>
      <trkpt lat="46.6221" lon="2.72719">
        <ele>248</ele>
        <time>2010-01-01T01:00:00+01:00</time>
      </trkpt>
      <trkpt lat="46.62191" lon="2.7274">
        <ele>249</ele>
        <time>2010-01-01T01:00:00+01:00</time>
      </trkpt>
      <trkpt lat="46.62165" lon="2.72766">
        <ele>252</ele>
        <time>2010-01-01T01:00:00+01:00</time>
      </trkpt>
      <trkpt lat="46.62141" lon="2.7279">
        <ele>254</ele>
        <time>2010-01-01T01:00:00+01:00</time>
      </trkpt>
      <trkpt lat="46.62137" lon="2.72794">
        <ele>254</ele>
        <time>2010-01-01T01:00:00+01:00</time>
      </trkpt>
      <trkpt lat="46.62109" lon="2.72823">
        <ele>255</ele>
        <time>2010-01-01T01:00:00+01:00</time>
      </trkpt>
      <trkpt lat="46.62087" lon="2.72845">
        <ele>255</ele>
        <time>2010-01-01T01:00:00+01:00</time>
      </trkpt>
      <trkpt lat="46.62072" lon="2.7286">
        <ele>256</ele>
        <time>2010-01-01T01:00:00+01:00</time>
      </trkpt>
      <trkpt lat="46.62066" lon="2.72866">
        <ele>257</ele>
        <time>2010-01-01T01:00:00+01:00</time>
      </trkpt>
      <trkpt lat="46.62035" lon="2.72898">
        <ele>258</ele>
        <time>2010-01-01T01:00:00+01:00</time>
      </trkpt>
      <trkpt lat="46.62006" lon="2.72927">
        <ele>258</ele>
        <time>2010-01-01T01:00:00+01:00</time>
      </trkpt>
      <trkpt lat="46.61975" lon="2.72959">
        <ele>260</ele>
        <time>2010-01-01T01:00:00+01:00</time>
      </trkpt>
      <trkpt lat="46.61944" lon="2.7299">
        <ele>262</ele>
        <time>2010-01-01T01:00:00+01:00</time>
      </trkpt>
      <trkpt lat="46.61906" lon="2.73029">
        <ele>264</ele>
        <time>2010-01-01T01:00:00+01:00</time>
      </trkpt>
      <trkpt lat="46.61882" lon="2.73054">
        <ele>265</ele>
        <time>2010-01-01T01:00:00+01:00</time>
      </trkpt>
      <trkpt lat="46.61861" lon="2.73074">
        <ele>267</ele>
        <time>2010-01-01T01:00:00+01:00</time>
      </trkpt>
      <trkpt lat="46.61833" lon="2.73104">
        <ele>269</ele>
        <time>2010-01-01T01:00:00+01:00</time>
      </trkpt>
      <trkpt lat="46.61833" lon="2.73104">
        <ele>269</ele>
        <time>2010-01-01T01:00:00+01:00</time>
      </trkpt>
      <trkpt lat="46.61553" lon="2.7253">
        <ele>276</ele>
        <time>2010-01-01T01:00:00+01:00</time>
      </trkpt>
      <trkpt lat="46.61499" lon="2.72419">
        <ele>270</ele>
        <time>2010-01-01T01:00:00+01:00</time>
      </trkpt>
      <trkpt lat="46.61499" lon="2.72419">
        <ele>270</ele>
        <time>2010-01-01T01:00:00+01:00</time>
      </trkpt>
      <trkpt lat="46.61459" lon="2.72448">
        <ele>270</ele>
        <time>2010-01-01T01:00:00+01:00</time>
      </trkpt>
      <trkpt lat="46.61422" lon="2.72479">
        <ele>271</ele>
        <time>2010-01-01T01:00:00+01:00</time>
      </trkpt>
      <trkpt lat="46.61369" lon="2.72547">
        <ele>270</ele>
        <time>2010-01-01T01:00:00+01:00</time>
      </trkpt>
      <trkpt lat="46.61369" lon="2.72547">
        <ele>270</ele>
        <time>2010-01-01T01:00:00+01:00</time>
      </trkpt>
      <trkpt lat="46.61362" lon="2.72512">
        <ele>268</ele>
        <time>2010-01-01T01:00:00+01:00</time>
      </trkpt>
      <trkpt lat="46.61355" lon="2.72475">
        <ele>265</ele>
        <time>2010-01-01T01:00:00+01:00</time>
      </trkpt>
      <trkpt lat="46.61352" lon="2.72455">
        <ele>263</ele>
        <time>2010-01-01T01:00:00+01:00</time>
      </trkpt>
      <trkpt lat="46.6135" lon="2.72434">
        <ele>261</ele>
        <time>2010-01-01T01:00:00+01:00</time>
      </trkpt>
      <trkpt lat="46.61347" lon="2.72413">
        <ele>260</ele>
        <time>2010-01-01T01:00:00+01:00</time>
      </trkpt>
      <trkpt lat="46.61345" lon="2.72396">
        <ele>260</ele>
        <time>2010-01-01T01:00:00+01:00</time>
      </trkpt>
      <trkpt lat="46.61342" lon="2.72368">
        <ele>260</ele>
        <time>2010-01-01T01:00:00+01:00</time>
      </trkpt>
      <trkpt lat="46.61341" lon="2.7236">
        <ele>260</ele>
        <time>2010-01-01T01:00:00+01:00</time>
      </trkpt>
      <trkpt lat="46.61335" lon="2.72304">
        <ele>263</ele>
        <time>2010-01-01T01:00:00+01:00</time>
      </trkpt>
      <trkpt lat="46.61333" lon="2.72281">
        <ele>264</ele>
        <time>2010-01-01T01:00:00+01:00</time>
      </trkpt>
      <trkpt lat="46.61324" lon="2.72252">
        <ele>266</ele>
        <time>2010-01-01T01:00:00+01:00</time>
      </trkpt>
      <trkpt lat="46.61314" lon="2.72228">
        <ele>267</ele>
        <time>2010-01-01T01:00:00+01:00</time>
      </trkpt>
      <trkpt lat="46.61303" lon="2.72196">
        <ele>268</ele>
        <time>2010-01-01T01:00:00+01:00</time>
      </trkpt>
      <trkpt lat="46.61296" lon="2.72174">
        <ele>269</ele>
        <time>2010-01-01T01:00:00+01:00</time>
      </trkpt>
      <trkpt lat="46.61284" lon="2.72131">
        <ele>269</ele>
        <time>2010-01-01T01:00:00+01:00</time>
      </trkpt>
      <trkpt lat="46.61275" lon="2.72096">
        <ele>270</ele>
        <time>2010-01-01T01:00:00+01:00</time>
      </trkpt>
      <trkpt lat="46.61266" lon="2.72061">
        <ele>271</ele>
        <time>2010-01-01T01:00:00+01:00</time>
      </trkpt>
      <trkpt lat="46.61259" lon="2.72033">
        <ele>272</ele>
        <time>2010-01-01T01:00:00+01:00</time>
      </trkpt>
      <trkpt lat="46.61255" lon="2.72013">
        <ele>273</ele>
        <time>2010-01-01T01:00:00+01:00</time>
      </trkpt>
      <trkpt lat="46.6125" lon="2.71982">
        <ele>274</ele>
        <time>2010-01-01T01:00:00+01:00</time>
      </trkpt>
      <trkpt lat="46.61243" lon="2.71935">
        <ele>276</ele>
        <time>2010-01-01T01:00:00+01:00</time>
      </trkpt>
      <trkpt lat="46.61233" lon="2.71869">
        <ele>278</ele>
        <time>2010-01-01T01:00:00+01:00</time>
      </trkpt>
      <trkpt lat="46.61219" lon="2.71785">
        <ele>282</ele>
        <time>2010-01-01T01:00:00+01:00</time>
      </trkpt>
      <trkpt lat="46.61211" lon="2.71731">
        <ele>284</ele>
        <time>2010-01-01T01:00:00+01:00</time>
      </trkpt>
      <trkpt lat="46.61203" lon="2.71683">
        <ele>285</ele>
        <time>2010-01-01T01:00:00+01:00</time>
      </trkpt>
      <trkpt lat="46.61195" lon="2.71627">
        <ele>286</ele>
        <time>2010-01-01T01:00:00+01:00</time>
      </trkpt>
      <trkpt lat="46.61188" lon="2.7158">
        <ele>285</ele>
        <time>2010-01-01T01:00:00+01:00</time>
      </trkpt>
      <trkpt lat="46.61184" lon="2.71557">
        <ele>285</ele>
        <time>2010-01-01T01:00:00+01:00</time>
      </trkpt>
      <trkpt lat="46.61178" lon="2.71531">
        <ele>285</ele>
        <time>2010-01-01T01:00:00+01:00</time>
      </trkpt>
      <trkpt lat="46.61164" lon="2.71483">
        <ele>284</ele>
        <time>2010-01-01T01:00:00+01:00</time>
      </trkpt>
      <trkpt lat="46.61145" lon="2.7143">
        <ele>283</ele>
        <time>2010-01-01T01:00:00+01:00</time>
      </trkpt>
      <trkpt lat="46.61127" lon="2.71376">
        <ele>281</ele>
        <time>2010-01-01T01:00:00+01:00</time>
      </trkpt>
      <trkpt lat="46.61109" lon="2.71326">
        <ele>279</ele>
        <time>2010-01-01T01:00:00+01:00</time>
      </trkpt>
      <trkpt lat="46.611" lon="2.71298">
        <ele>278</ele>
        <time>2010-01-01T01:00:00+01:00</time>
      </trkpt>
      <trkpt lat="46.61081" lon="2.71242">
        <ele>276</ele>
        <time>2010-01-01T01:00:00+01:00</time>
      </trkpt>
      <trkpt lat="46.61062" lon="2.71187">
        <ele>278</ele>
        <time>2010-01-01T01:00:00+01:00</time>
      </trkpt>
      <trkpt lat="46.61036" lon="2.71111">
        <ele>279</ele>
        <time>2010-01-01T01:00:00+01:00</time>
      </trkpt>
      <trkpt lat="46.61017" lon="2.71053">
        <ele>280</ele>
        <time>2010-01-01T01:00:00+01:00</time>
      </trkpt>
      <trkpt lat="46.60991" lon="2.70981">
        <ele>280</ele>
        <time>2010-01-01T01:00:00+01:00</time>
      </trkpt>
      <trkpt lat="46.60978" lon="2.7094">
        <ele>281</ele>
        <time>2010-01-01T01:00:00+01:00</time>
      </trkpt>
      <trkpt lat="46.60955" lon="2.70862">
        <ele>282</ele>
        <time>2010-01-01T01:00:00+01:00</time>
      </trkpt>
      <trkpt lat="46.6094" lon="2.70808">
        <ele>282</ele>
        <time>2010-01-01T01:00:00+01:00</time>
      </trkpt>
      <trkpt lat="46.60921" lon="2.70735">
        <ele>282</ele>
        <time>2010-01-01T01:00:00+01:00</time>
      </trkpt>
      <trkpt lat="46.60905" lon="2.70677">
        <ele>283</ele>
        <time>2010-01-01T01:00:00+01:00</time>
      </trkpt>
      <trkpt lat="46.60887" lon="2.70613">
        <ele>284</ele>
        <time>2010-01-01T01:00:00+01:00</time>
      </trkpt>
      <trkpt lat="46.60872" lon="2.70562">
        <ele>283</ele>
        <time>2010-01-01T01:00:00+01:00</time>
      </trkpt>
      <trkpt lat="46.6086" lon="2.70518">
        <ele>283</ele>
        <time>2010-01-01T01:00:00+01:00</time>
      </trkpt>
      <trkpt lat="46.60852" lon="2.70489">
        <ele>282</ele>
        <time>2010-01-01T01:00:00+01:00</time>
      </trkpt>
      <trkpt lat="46.60848" lon="2.70474">
        <ele>282</ele>
        <time>2010-01-01T01:00:00+01:00</time>
      </trkpt>
      <trkpt lat="46.60839" lon="2.70441">
        <ele>281</ele>
        <time>2010-01-01T01:00:00+01:00</time>
      </trkpt>
      <trkpt lat="46.6083" lon="2.70407">
        <ele>280</ele>
        <time>2010-01-01T01:00:00+01:00</time>
      </trkpt>
      <trkpt lat="46.6082" lon="2.70373">
        <ele>280</ele>
        <time>2010-01-01T01:00:00+01:00</time>
      </trkpt>
      <trkpt lat="46.60811" lon="2.70346">
        <ele>280</ele>
        <time>2010-01-01T01:00:00+01:00</time>
      </trkpt>
      <trkpt lat="46.60803" lon="2.70327">
        <ele>280</ele>
        <time>2010-01-01T01:00:00+01:00</time>
      </trkpt>
      <trkpt lat="46.60792" lon="2.70306">
        <ele>281</ele>
        <time>2010-01-01T01:00:00+01:00</time>
      </trkpt>
      <trkpt lat="46.60776" lon="2.70278">
        <ele>282</ele>
        <time>2010-01-01T01:00:00+01:00</time>
      </trkpt>
      <trkpt lat="46.60747" lon="2.70231">
        <ele>284</ele>
        <time>2010-01-01T01:00:00+01:00</time>
      </trkpt>
      <trkpt lat="46.60731" lon="2.70204">
        <ele>284</ele>
        <time>2010-01-01T01:00:00+01:00</time>
      </trkpt>
      <trkpt lat="46.60721" lon="2.70185">
        <ele>285</ele>
        <time>2010-01-01T01:00:00+01:00</time>
      </trkpt>
      <trkpt lat="46.6071" lon="2.70159">
        <ele>286</ele>
        <time>2010-01-01T01:00:00+01:00</time>
      </trkpt>
      <trkpt lat="46.60699" lon="2.70124">
        <ele>287</ele>
        <time>2010-01-01T01:00:00+01:00</time>
      </trkpt>
      <trkpt lat="46.60684" lon="2.70074">
        <ele>289</ele>
        <time>2010-01-01T01:00:00+01:00</time>
      </trkpt>
      <trkpt lat="46.60672" lon="2.70034">
        <ele>290</ele>
        <time>2010-01-01T01:00:00+01:00</time>
      </trkpt>
      <trkpt lat="46.60667" lon="2.7001">
        <ele>290</ele>
        <time>2010-01-01T01:00:00+01:00</time>
      </trkpt>
      <trkpt lat="46.60658" lon="2.69985">
        <ele>291</ele>
        <time>2010-01-01T01:00:00+01:00</time>
      </trkpt>
      <trkpt lat="46.60652" lon="2.69967">
        <ele>291</ele>
        <time>2010-01-01T01:00:00+01:00</time>
      </trkpt>
      <trkpt lat="46.60643" lon="2.69934">
        <ele>291</ele>
        <time>2010-01-01T01:00:00+01:00</time>
      </trkpt>
      <trkpt lat="46.60636" lon="2.69903">
        <ele>291</ele>
        <time>2010-01-01T01:00:00+01:00</time>
      </trkpt>
      <trkpt lat="46.60633" lon="2.69872">
        <ele>291</ele>
        <time>2010-01-01T01:00:00+01:00</time>
      </trkpt>
      <trkpt lat="46.60627" lon="2.69817">
        <ele>292</ele>
        <time>2010-01-01T01:00:00+01:00</time>
      </trkpt>
      <trkpt lat="46.6062" lon="2.69744">
        <ele>294</ele>
        <time>2010-01-01T01:00:00+01:00</time>
      </trkpt>
      <trkpt lat="46.60615" lon="2.69686">
        <ele>294</ele>
        <time>2010-01-01T01:00:00+01:00</time>
      </trkpt>
      <trkpt lat="46.6061" lon="2.69629">
        <ele>295</ele>
        <time>2010-01-01T01:00:00+01:00</time>
      </trkpt>
      <trkpt lat="46.60604" lon="2.69565">
        <ele>296</ele>
        <time>2010-01-01T01:00:00+01:00</time>
      </trkpt>
      <trkpt lat="46.60598" lon="2.69503">
        <ele>297</ele>
        <time>2010-01-01T01:00:00+01:00</time>
      </trkpt>
      <trkpt lat="46.60593" lon="2.6945">
        <ele>302</ele>
        <time>2010-01-01T01:00:00+01:00</time>
      </trkpt>
      <trkpt lat="46.60589" lon="2.69406">
        <ele>306</ele>
        <time>2010-01-01T01:00:00+01:00</time>
      </trkpt>
      <trkpt lat="46.60574" lon="2.69405">
        <ele>309</ele>
        <time>2010-01-01T01:00:00+01:00</time>
      </trkpt>
      <trkpt lat="46.6023" lon="2.69329">
        <ele>323</ele>
        <time>2010-01-01T01:00:00+01:00</time>
      </trkpt>
      <trkpt lat="46.60101" lon="2.693">
        <ele>313</ele>
        <time>2010-01-01T01:00:00+01:00</time>
      </trkpt>
      <trkpt lat="46.6008" lon="2.69297">
        <ele>312</ele>
        <time>2010-01-01T01:00:00+01:00</time>
      </trkpt>
      <trkpt lat="46.6002" lon="2.69283">
        <ele>310</ele>
        <time>2010-01-01T01:00:00+01:00</time>
      </trkpt>
      <trkpt lat="46.59968" lon="2.69273">
        <ele>310</ele>
        <time>2010-01-01T01:00:00+01:00</time>
      </trkpt>
      <trkpt lat="46.59777" lon="2.69229">
        <ele>317</ele>
        <time>2010-01-01T01:00:00+01:00</time>
      </trkpt>
      <trkpt lat="46.59777" lon="2.69229">
        <ele>317</ele>
        <time>2010-01-01T01:00:00+01:00</time>
      </trkpt>
      <trkpt lat="46.59878" lon="2.69009">
        <ele>307</ele>
        <time>2010-01-01T01:00:00+01:00</time>
      </trkpt>
      <trkpt lat="46.59885" lon="2.6899">
        <ele>307</ele>
        <time>2010-01-01T01:00:00+01:00</time>
      </trkpt>
      <trkpt lat="46.59896" lon="2.68963">
        <ele>308</ele>
        <time>2010-01-01T01:00:00+01:00</time>
      </trkpt>
      <trkpt lat="46.59899" lon="2.68955">
        <ele>308</ele>
        <time>2010-01-01T01:00:00+01:00</time>
      </trkpt>
      <trkpt lat="46.59907" lon="2.68934">
        <ele>308</ele>
        <time>2010-01-01T01:00:00+01:00</time>
      </trkpt>
      <trkpt lat="46.59949" lon="2.68822">
        <ele>309</ele>
        <time>2010-01-01T01:00:00+01:00</time>
      </trkpt>
      <trkpt lat="46.59966" lon="2.68776">
        <ele>308</ele>
        <time>2010-01-01T01:00:00+01:00</time>
      </trkpt>
      <trkpt lat="46.59992" lon="2.68709">
        <ele>307</ele>
        <time>2010-01-01T01:00:00+01:00</time>
      </trkpt>
      <trkpt lat="46.60023" lon="2.68625">
        <ele>309</ele>
        <time>2010-01-01T01:00:00+01:00</time>
      </trkpt>
      <trkpt lat="46.60038" lon="2.68586">
        <ele>311</ele>
        <time>2010-01-01T01:00:00+01:00</time>
      </trkpt>
      <trkpt lat="46.60067" lon="2.6851">
        <ele>314</ele>
        <time>2010-01-01T01:00:00+01:00</time>
      </trkpt>
      <trkpt lat="46.60091" lon="2.68447">
        <ele>317</ele>
        <time>2010-01-01T01:00:00+01:00</time>
      </trkpt>
      <trkpt lat="46.60133" lon="2.68334">
        <ele>321</ele>
        <time>2010-01-01T01:00:00+01:00</time>
      </trkpt>
      <trkpt lat="46.60133" lon="2.68334">
        <ele>321</ele>
        <time>2010-01-01T01:00:00+01:00</time>
      </trkpt>
      <trkpt lat="46.60272" lon="2.68301">
        <ele>323</ele>
        <time>2010-01-01T01:00:00+01:00</time>
      </trkpt>
      <trkpt lat="46.60313" lon="2.6829">
        <ele>320</ele>
        <time>2010-01-01T01:00:00+01:00</time>
      </trkpt>
      <trkpt lat="46.60338" lon="2.68282">
        <ele>317</ele>
        <time>2010-01-01T01:00:00+01:00</time>
      </trkpt>
      <trkpt lat="46.60355" lon="2.68279">
        <ele>317</ele>
        <time>2010-01-01T01:00:00+01:00</time>
      </trkpt>
      <trkpt lat="46.60384" lon="2.68273">
        <ele>316</ele>
        <time>2010-01-01T01:00:00+01:00</time>
      </trkpt>
      <trkpt lat="46.60432" lon="2.6826">
        <ele>314</ele>
        <time>2010-01-01T01:00:00+01:00</time>
      </trkpt>
      <trkpt lat="46.60472" lon="2.6825">
        <ele>314</ele>
        <time>2010-01-01T01:00:00+01:00</time>
      </trkpt>
      <trkpt lat="46.60513" lon="2.6824">
        <ele>314</ele>
        <time>2010-01-01T01:00:00+01:00</time>
      </trkpt>
      <trkpt lat="46.60558" lon="2.68229">
        <ele>313</ele>
        <time>2010-01-01T01:00:00+01:00</time>
      </trkpt>
      <trkpt lat="46.60598" lon="2.6822">
        <ele>313</ele>
        <time>2010-01-01T01:00:00+01:00</time>
      </trkpt>
      <trkpt lat="46.60635" lon="2.68211">
        <ele>313</ele>
        <time>2010-01-01T01:00:00+01:00</time>
      </trkpt>
      <trkpt lat="46.60673" lon="2.68202">
        <ele>312</ele>
        <time>2010-01-01T01:00:00+01:00</time>
      </trkpt>
      <trkpt lat="46.60714" lon="2.68193">
        <ele>309</ele>
        <time>2010-01-01T01:00:00+01:00</time>
      </trkpt>
      <trkpt lat="46.60748" lon="2.68185">
        <ele>307</ele>
        <time>2010-01-01T01:00:00+01:00</time>
      </trkpt>
      <trkpt lat="46.60769" lon="2.68179">
        <ele>306</ele>
        <time>2010-01-01T01:00:00+01:00</time>
      </trkpt>
      <trkpt lat="46.60826" lon="2.68165">
        <ele>301</ele>
        <time>2010-01-01T01:00:00+01:00</time>
      </trkpt>
      <trkpt lat="46.60839" lon="2.68162">
        <ele>301</ele>
        <time>2010-01-01T01:00:00+01:00</time>
      </trkpt>
      <trkpt lat="46.6086" lon="2.68157">
        <ele>300</ele>
        <time>2010-01-01T01:00:00+01:00</time>
      </trkpt>
      <trkpt lat="46.60901" lon="2.68147">
        <ele>298</ele>
        <time>2010-01-01T01:00:00+01:00</time>
      </trkpt>
      <trkpt lat="46.60943" lon="2.68137">
        <ele>297</ele>
        <time>2010-01-01T01:00:00+01:00</time>
      </trkpt>
      <trkpt lat="46.60989" lon="2.68125">
        <ele>297</ele>
        <time>2010-01-01T01:00:00+01:00</time>
      </trkpt>
      <trkpt lat="46.61001" lon="2.68122">
        <ele>296</ele>
        <time>2010-01-01T01:00:00+01:00</time>
      </trkpt>
      <trkpt lat="46.61016" lon="2.68119">
        <ele>296</ele>
        <time>2010-01-01T01:00:00+01:00</time>
      </trkpt>
      <trkpt lat="46.61064" lon="2.68107">
        <ele>294</ele>
        <time>2010-01-01T01:00:00+01:00</time>
      </trkpt>
      <trkpt lat="46.61101" lon="2.68098">
        <ele>293</ele>
        <time>2010-01-01T01:00:00+01:00</time>
      </trkpt>
      <trkpt lat="46.61136" lon="2.6809">
        <ele>293</ele>
        <time>2010-01-01T01:00:00+01:00</time>
      </trkpt>
      <trkpt lat="46.61171" lon="2.68081">
        <ele>292</ele>
        <time>2010-01-01T01:00:00+01:00</time>
      </trkpt>
      <trkpt lat="46.61203" lon="2.68073">
        <ele>292</ele>
        <time>2010-01-01T01:00:00+01:00</time>
      </trkpt>
      <trkpt lat="46.61218" lon="2.68069">
        <ele>291</ele>
        <time>2010-01-01T01:00:00+01:00</time>
      </trkpt>
      <trkpt lat="46.61251" lon="2.68061">
        <ele>291</ele>
        <time>2010-01-01T01:00:00+01:00</time>
      </trkpt>
      <trkpt lat="46.61296" lon="2.68049">
        <ele>291</ele>
        <time>2010-01-01T01:00:00+01:00</time>
      </trkpt>
      <trkpt lat="46.61355" lon="2.68035">
        <ele>293</ele>
        <time>2010-01-01T01:00:00+01:00</time>
      </trkpt>
      <trkpt lat="46.61395" lon="2.68024">
        <ele>296</ele>
        <time>2010-01-01T01:00:00+01:00</time>
      </trkpt>
      <trkpt lat="46.61409" lon="2.68022">
        <ele>297</ele>
        <time>2010-01-01T01:00:00+01:00</time>
      </trkpt>
      <trkpt lat="46.61424" lon="2.68019">
        <ele>298</ele>
        <time>2010-01-01T01:00:00+01:00</time>
      </trkpt>
      <trkpt lat="46.61499" lon="2.68001">
        <ele>301</ele>
        <time>2010-01-01T01:00:00+01:00</time>
      </trkpt>
      <trkpt lat="46.61539" lon="2.67991">
        <ele>301</ele>
        <time>2010-01-01T01:00:00+01:00</time>
      </trkpt>
      <trkpt lat="46.61581" lon="2.67981">
        <ele>302</ele>
        <time>2010-01-01T01:00:00+01:00</time>
      </trkpt>
      <trkpt lat="46.6165" lon="2.67963">
        <ele>300</ele>
        <time>2010-01-01T01:00:00+01:00</time>
      </trkpt>
      <trkpt lat="46.61799" lon="2.67927">
        <ele>295</ele>
        <time>2010-01-01T01:00:00+01:00</time>
      </trkpt>
      <trkpt lat="46.61839" lon="2.67919">
        <ele>293</ele>
        <time>2010-01-01T01:00:00+01:00</time>
      </trkpt>
      <trkpt lat="46.61856" lon="2.67915">
        <ele>292</ele>
        <time>2010-01-01T01:00:00+01:00</time>
      </trkpt>
      <trkpt lat="46.61874" lon="2.6791">
        <ele>292</ele>
        <time>2010-01-01T01:00:00+01:00</time>
      </trkpt>
      <trkpt lat="46.61907" lon="2.67901">
        <ele>291</ele>
        <time>2010-01-01T01:00:00+01:00</time>
      </trkpt>
      <trkpt lat="46.61943" lon="2.67892">
        <ele>289</ele>
        <time>2010-01-01T01:00:00+01:00</time>
      </trkpt>
      <trkpt lat="46.61972" lon="2.67885">
        <ele>287</ele>
        <time>2010-01-01T01:00:00+01:00</time>
      </trkpt>
      <trkpt lat="46.62016" lon="2.67874">
        <ele>284</ele>
        <time>2010-01-01T01:00:00+01:00</time>
      </trkpt>
      <trkpt lat="46.62067" lon="2.67862">
        <ele>283</ele>
        <time>2010-01-01T01:00:00+01:00</time>
      </trkpt>
      <trkpt lat="46.621" lon="2.67854">
        <ele>283</ele>
        <time>2010-01-01T01:00:00+01:00</time>
      </trkpt>
      <trkpt lat="46.62115" lon="2.6785">
        <ele>282</ele>
        <time>2010-01-01T01:00:00+01:00</time>
      </trkpt>
      <trkpt lat="46.62137" lon="2.67845">
        <ele>281</ele>
        <time>2010-01-01T01:00:00+01:00</time>
      </trkpt>
      <trkpt lat="46.62144" lon="2.67843">
        <ele>281</ele>
        <time>2010-01-01T01:00:00+01:00</time>
      </trkpt>
      <trkpt lat="46.62142" lon="2.67828">
        <ele>281</ele>
        <time>2010-01-01T01:00:00+01:00</time>
      </trkpt>
      <trkpt lat="46.62144" lon="2.67805">
        <ele>281</ele>
        <time>2010-01-01T01:00:00+01:00</time>
      </trkpt>
      <trkpt lat="46.62144" lon="2.67765">
        <ele>281</ele>
        <time>2010-01-01T01:00:00+01:00</time>
      </trkpt>
      <trkpt lat="46.62144" lon="2.67736">
        <ele>281</ele>
        <time>2010-01-01T01:00:00+01:00</time>
      </trkpt>
      <trkpt lat="46.62144" lon="2.6769">
        <ele>282</ele>
        <time>2010-01-01T01:00:00+01:00</time>
      </trkpt>
      <trkpt lat="46.62145" lon="2.67624">
        <ele>283</ele>
        <time>2010-01-01T01:00:00+01:00</time>
      </trkpt>
      <trkpt lat="46.62146" lon="2.67587">
        <ele>284</ele>
        <time>2010-01-01T01:00:00+01:00</time>
      </trkpt>
      <trkpt lat="46.62145" lon="2.67548">
        <ele>285</ele>
        <time>2010-01-01T01:00:00+01:00</time>
      </trkpt>
      <trkpt lat="46.62145" lon="2.67515">
        <ele>285</ele>
        <time>2010-01-01T01:00:00+01:00</time>
      </trkpt>
      <trkpt lat="46.62145" lon="2.67495">
        <ele>285</ele>
        <time>2010-01-01T01:00:00+01:00</time>
      </trkpt>
      <trkpt lat="46.62146" lon="2.67472">
        <ele>284</ele>
        <time>2010-01-01T01:00:00+01:00</time>
      </trkpt>
      <trkpt lat="46.62146" lon="2.67456">
        <ele>283</ele>
        <time>2010-01-01T01:00:00+01:00</time>
      </trkpt>
      <trkpt lat="46.62146" lon="2.67433">
        <ele>282</ele>
        <time>2010-01-01T01:00:00+01:00</time>
      </trkpt>
      <trkpt lat="46.62146" lon="2.67405">
        <ele>281</ele>
        <time>2010-01-01T01:00:00+01:00</time>
      </trkpt>
      <trkpt lat="46.62147" lon="2.67376">
        <ele>279</ele>
        <time>2010-01-01T01:00:00+01:00</time>
      </trkpt>
      <trkpt lat="46.62147" lon="2.67335">
        <ele>277</ele>
        <time>2010-01-01T01:00:00+01:00</time>
      </trkpt>
      <trkpt lat="46.62147" lon="2.67314">
        <ele>276</ele>
        <time>2010-01-01T01:00:00+01:00</time>
      </trkpt>
      <trkpt lat="46.62147" lon="2.67282">
        <ele>274</ele>
        <time>2010-01-01T01:00:00+01:00</time>
      </trkpt>
      <trkpt lat="46.62147" lon="2.67262">
        <ele>273</ele>
        <time>2010-01-01T01:00:00+01:00</time>
      </trkpt>
      <trkpt lat="46.62148" lon="2.67206">
        <ele>271</ele>
        <time>2010-01-01T01:00:00+01:00</time>
      </trkpt>
      <trkpt lat="46.62149" lon="2.67164">
        <ele>271</ele>
        <time>2010-01-01T01:00:00+01:00</time>
      </trkpt>
      <trkpt lat="46.62149" lon="2.67116">
        <ele>272</ele>
        <time>2010-01-01T01:00:00+01:00</time>
      </trkpt>
      <trkpt lat="46.62148" lon="2.67079">
        <ele>273</ele>
        <time>2010-01-01T01:00:00+01:00</time>
      </trkpt>
      <trkpt lat="46.62148" lon="2.67062">
        <ele>273</ele>
        <time>2010-01-01T01:00:00+01:00</time>
      </trkpt>
      <trkpt lat="46.62149" lon="2.6704">
        <ele>274</ele>
        <time>2010-01-01T01:00:00+01:00</time>
      </trkpt>
      <trkpt lat="46.62153" lon="2.67019">
        <ele>274</ele>
        <time>2010-01-01T01:00:00+01:00</time>
      </trkpt>
      <trkpt lat="46.62161" lon="2.66998">
        <ele>273</ele>
        <time>2010-01-01T01:00:00+01:00</time>
      </trkpt>
      <trkpt lat="46.62163" lon="2.66968">
        <ele>271</ele>
        <time>2010-01-01T01:00:00+01:00</time>
      </trkpt>
      <trkpt lat="46.62161" lon="2.66957">
        <ele>271</ele>
        <time>2010-01-01T01:00:00+01:00</time>
      </trkpt>
      <trkpt lat="46.62155" lon="2.66935">
        <ele>270</ele>
        <time>2010-01-01T01:00:00+01:00</time>
      </trkpt>
      <trkpt lat="46.62149" lon="2.66905">
        <ele>270</ele>
        <time>2010-01-01T01:00:00+01:00</time>
      </trkpt>
      <trkpt lat="46.6215" lon="2.66877">
        <ele>270</ele>
        <time>2010-01-01T01:00:00+01:00</time>
      </trkpt>
      <trkpt lat="46.62156" lon="2.6685">
        <ele>269</ele>
        <time>2010-01-01T01:00:00+01:00</time>
      </trkpt>
      <trkpt lat="46.62166" lon="2.66824">
        <ele>268</ele>
        <time>2010-01-01T01:00:00+01:00</time>
      </trkpt>
      <trkpt lat="46.62178" lon="2.66801">
        <ele>269</ele>
        <time>2010-01-01T01:00:00+01:00</time>
      </trkpt>
      <trkpt lat="46.62191" lon="2.66775">
        <ele>269</ele>
        <time>2010-01-01T01:00:00+01:00</time>
      </trkpt>
      <trkpt lat="46.62199" lon="2.66769">
        <ele>269</ele>
        <time>2010-01-01T01:00:00+01:00</time>
      </trkpt>
      <trkpt lat="46.6221" lon="2.66781">
        <ele>269</ele>
        <time>2010-01-01T01:00:00+01:00</time>
      </trkpt>
      <trkpt lat="46.62247" lon="2.668">
        <ele>268</ele>
        <time>2010-01-01T01:00:00+01:00</time>
      </trkpt>
      <trkpt lat="46.62287" lon="2.66821">
        <ele>268</ele>
        <time>2010-01-01T01:00:00+01:00</time>
      </trkpt>
      <trkpt lat="46.62323" lon="2.6684">
        <ele>269</ele>
        <time>2010-01-01T01:00:00+01:00</time>
      </trkpt>
      <trkpt lat="46.62356" lon="2.66857">
        <ele>268</ele>
        <time>2010-01-01T01:00:00+01:00</time>
      </trkpt>
      <trkpt lat="46.62397" lon="2.66878">
        <ele>268</ele>
        <time>2010-01-01T01:00:00+01:00</time>
      </trkpt>
      <trkpt lat="46.62433" lon="2.66897">
        <ele>268</ele>
        <time>2010-01-01T01:00:00+01:00</time>
      </trkpt>
      <trkpt lat="46.6246" lon="2.66911">
        <ele>267</ele>
        <time>2010-01-01T01:00:00+01:00</time>
      </trkpt>
      <trkpt lat="46.62492" lon="2.66928">
        <ele>265</ele>
        <time>2010-01-01T01:00:00+01:00</time>
      </trkpt>
      <trkpt lat="46.62525" lon="2.66945">
        <ele>265</ele>
        <time>2010-01-01T01:00:00+01:00</time>
      </trkpt>
      <trkpt lat="46.6256" lon="2.66963">
        <ele>264</ele>
        <time>2010-01-01T01:00:00+01:00</time>
      </trkpt>
      <trkpt lat="46.62598" lon="2.66982">
        <ele>262</ele>
        <time>2010-01-01T01:00:00+01:00</time>
      </trkpt>
      <trkpt lat="46.62626" lon="2.66997">
        <ele>260</ele>
        <time>2010-01-01T01:00:00+01:00</time>
      </trkpt>
      <trkpt lat="46.62653" lon="2.67011">
        <ele>259</ele>
        <time>2010-01-01T01:00:00+01:00</time>
      </trkpt>
      <trkpt lat="46.62653" lon="2.67012">
        <ele>259</ele>
        <time>2010-01-01T01:00:00+01:00</time>
      </trkpt>
      <trkpt lat="46.62679" lon="2.67025">
        <ele>258</ele>
        <time>2010-01-01T01:00:00+01:00</time>
      </trkpt>
      <trkpt lat="46.6271" lon="2.67042">
        <ele>257</ele>
        <time>2010-01-01T01:00:00+01:00</time>
      </trkpt>
      <trkpt lat="46.62748" lon="2.67061">
        <ele>256</ele>
        <time>2010-01-01T01:00:00+01:00</time>
      </trkpt>
      <trkpt lat="46.6279" lon="2.67083">
        <ele>256</ele>
        <time>2010-01-01T01:00:00+01:00</time>
      </trkpt>
      <trkpt lat="46.62831" lon="2.67104">
        <ele>257</ele>
        <time>2010-01-01T01:00:00+01:00</time>
      </trkpt>
      <trkpt lat="46.62867" lon="2.67123">
        <ele>260</ele>
        <time>2010-01-01T01:00:00+01:00</time>
      </trkpt>
      <trkpt lat="46.62911" lon="2.67146">
        <ele>263</ele>
        <time>2010-01-01T01:00:00+01:00</time>
      </trkpt>
      <trkpt lat="46.62958" lon="2.67171">
        <ele>264</ele>
        <time>2010-01-01T01:00:00+01:00</time>
      </trkpt>
      <trkpt lat="46.62996" lon="2.67191">
        <ele>264</ele>
        <time>2010-01-01T01:00:00+01:00</time>
      </trkpt>
      <trkpt lat="46.63038" lon="2.67212">
        <ele>263</ele>
        <time>2010-01-01T01:00:00+01:00</time>
      </trkpt>
      <trkpt lat="46.63075" lon="2.67231">
        <ele>262</ele>
        <time>2010-01-01T01:00:00+01:00</time>
      </trkpt>
      <trkpt lat="46.63118" lon="2.67254">
        <ele>260</ele>
        <time>2010-01-01T01:00:00+01:00</time>
      </trkpt>
      <trkpt lat="46.63153" lon="2.67273">
        <ele>258</ele>
        <time>2010-01-01T01:00:00+01:00</time>
      </trkpt>
      <trkpt lat="46.63195" lon="2.67294">
        <ele>257</ele>
        <time>2010-01-01T01:00:00+01:00</time>
      </trkpt>
      <trkpt lat="46.63224" lon="2.67311">
        <ele>256</ele>
        <time>2010-01-01T01:00:00+01:00</time>
      </trkpt>
      <trkpt lat="46.63286" lon="2.67343">
        <ele>254</ele>
        <time>2010-01-01T01:00:00+01:00</time>
      </trkpt>
      <trkpt lat="46.6335" lon="2.67376">
        <ele>254</ele>
        <time>2010-01-01T01:00:00+01:00</time>
      </trkpt>
      <trkpt lat="46.63406" lon="2.67405">
        <ele>252</ele>
        <time>2010-01-01T01:00:00+01:00</time>
      </trkpt>
      <trkpt lat="46.6345" lon="2.6743">
        <ele>252</ele>
        <time>2010-01-01T01:00:00+01:00</time>
      </trkpt>
      <trkpt lat="46.63496" lon="2.67454">
        <ele>253</ele>
        <time>2010-01-01T01:00:00+01:00</time>
      </trkpt>
      <trkpt lat="46.63534" lon="2.67474">
        <ele>251</ele>
        <time>2010-01-01T01:00:00+01:00</time>
      </trkpt>
      <trkpt lat="46.63552" lon="2.67485">
        <ele>250</ele>
        <time>2010-01-01T01:00:00+01:00</time>
      </trkpt>
    </trkseg>
  </trk>
</gpx>